Time,TemperatureF,DewpointF,PressureIn,WindDirection,WindDirectionDegrees,WindSpeedMPH,WindSpeedGustMPH,Humidity,HourlyPrecipIn,Conditions,Clouds,dailyrainin,SoftwareType,DateUTC
2013-02-13 00:00:00,34.0,23.5,29.77,West,266,1.0,1.0,65,0.00,,---,0.00,VWS V14.00,2013-02-13 05:00:00,
2013-02-13 00:05:00,33.8,23.3,29.77,West,266,0.0,2.0,65,0.00,,---,0.00,VWS V14.00,2013-02-13 05:05:00,
2013-02-13 00:10:00,33.8,23.3,29.77,West,272,0.0,3.0,65,0.00,,---,0.00,VWS V14.00,2013-02-13 05:10:00,
2013-02-13 00:15:00,33.8,23.3,29.77,West,272,0.0,1.0,65,0.00,,---,0.00,VWS V14.00,2013-02-13 05:15:00,
2013-02-13 00:20:00,33.8,23.3,29.77,West,271,0.0,2.0,65,0.00,,---,0.00,VWS V14.00,2013-02-13 05:20:00,
2013-02-13 00:21:00,33.8,23.3,29.77,West,271,0.0,2.0,65,0.00,,---,0.00,VWS V14.00,2013-02-13 05:21:00,
2013-02-13 00:25:00,33.8,23.3,29.77,West,271,0.0,2.0,65,0.00,,---,0.00,VWS V14.00,2013-02-13 05:25:00,
2013-02-13 00:26:00,33.7,23.2,29.77,West,272,0.0,2.0,65,0.00,,---,0.00,VWS V14.00,2013-02-13 05:26:00,
2013-02-13 00:30:00,33.7,23.6,29.78,West,271,0.0,0.0,66,0.00,,---,0.00,VWS V14.00,2013-02-13 05:30:00,
2013-02-13 00:31:00,33.7,23.6,29.78,West,271,0.0,0.0,66,0.00,,---,0.00,VWS V14.00,2013-02-13 05:31:00,
2013-02-13 00:35:00,33.5,23.4,29.78,West,271,1.0,1.0,66,0.00,,---,0.00,VWS V14.00,2013-02-13 05:35:00,
2013-02-13 00:36:00,33.5,23.0,29.78,West,271,0.0,1.0,65,0.00,,---,0.00,VWS V14.00,2013-02-13 05:36:00,
2013-02-13 00:40:00,33.4,22.9,29.78,West,269,0.0,2.0,65,0.00,,---,0.00,VWS V14.00,2013-02-13 05:40:00,
2013-02-13 00:41:00,33.4,22.9,29.78,West,269,0.0,2.0,65,0.00,,---,0.00,VWS V14.00,2013-02-13 05:41:00,
2013-02-13 00:45:00,33.4,22.9,29.78,West,274,0.0,2.0,65,0.00,,---,0.00,VWS V14.00,2013-02-13 05:45:00,
2013-02-13 00:46:00,33.4,23.3,29.78,West,273,0.0,2.0,66,0.00,,---,0.00,VWS V14.00,2013-02-13 05:46:00,
2013-02-13 00:50:00,33.2,23.1,29.78,West,278,0.0,4.0,66,0.00,,---,0.00,VWS V14.00,2013-02-13 05:50:00,
2013-02-13 00:51:00,33.1,23.0,29.78,West,278,0.0,4.0,66,0.00,,---,0.00,VWS V14.00,2013-02-13 05:51:00,
2013-02-13 00:55:00,32.9,22.8,29.78,West,278,0.0,4.0,66,0.00,,---,0.00,VWS V14.00,2013-02-13 05:55:00,
2013-02-13 00:56:00,32.9,22.8,29.78,West,278,0.0,4.0,66,0.00,,---,0.00,VWS V14.00,2013-02-13 05:56:00,
2013-02-13 01:00:00,32.8,23.1,29.78,West,266,0.0,0.0,67,0.00,,---,0.00,VWS V14.00,2013-02-13 06:00:00,
2013-02-13 01:01:00,32.7,23.0,29.78,West,266,0.0,1.0,67,0.00,,---,0.00,VWS V14.00,2013-02-13 06:01:00,
2013-02-13 01:05:00,32.5,22.8,29.78,West,266,0.0,1.0,67,0.00,,---,0.00,VWS V14.00,2013-02-13 06:05:00,
2013-02-13 01:06:00,32.5,22.8,29.78,West,266,0.0,1.0,67,0.00,,---,0.00,VWS V14.00,2013-02-13 06:06:00,
2013-02-13 01:10:00,32.4,22.7,29.78,West,267,0.0,1.0,67,0.00,,---,0.00,VWS V14.00,2013-02-13 06:10:00,
2013-02-13 01:11:00,32.4,22.7,29.78,West,267,0.0,1.0,67,0.00,,---,0.00,VWS V14.00,2013-02-13 06:11:00,
2013-02-13 01:15:00,32.4,22.7,29.76,West,278,0.0,3.0,67,0.00,,---,0.00,VWS V14.00,2013-02-13 06:15:00,
2013-02-13 01:16:00,32.4,22.7,29.76,West,278,0.0,1.0,67,0.00,,---,0.00,VWS V14.00,2013-02-13 06:16:00,
2013-02-13 01:21:00,32.2,22.5,29.76,West,277,0.0,3.0,67,0.00,,---,0.00,VWS V14.00,2013-02-13 06:21:00,
2013-02-13 01:26:00,32.1,22.4,29.76,West,277,0.0,3.0,67,0.00,,---,0.00,VWS V14.00,2013-02-13 06:26:00,
2013-02-13 01:30:00,31.9,22.2,29.76,West,278,0.0,3.0,67,0.00,,---,0.00,VWS V14.00,2013-02-13 06:30:00,
2013-02-13 01:31:00,31.8,22.1,29.76,West,278,0.0,0.0,67,0.00,,---,0.00,VWS V14.00,2013-02-13 06:31:00,
2013-02-13 01:36:00,31.6,22.3,29.76,West,277,0.0,1.0,68,0.00,,---,0.00,VWS V14.00,2013-02-13 06:36:00,
2013-02-13 01:37:00,31.6,22.3,29.76,West,277,0.0,1.0,68,0.00,,---,0.00,VWS V14.00,2013-02-13 06:37:00,
2013-02-13 01:41:00,31.5,22.2,29.76,West,277,1.0,1.0,68,0.00,,---,0.00,VWS V14.00,2013-02-13 06:41:00,
2013-02-13 01:42:00,31.5,22.2,29.76,West,277,0.0,1.0,68,0.00,,---,0.00,VWS V14.00,2013-02-13 06:42:00,
2013-02-13 01:45:00,31.5,22.2,29.76,West,277,0.0,1.0,68,0.00,,---,0.00,VWS V14.00,2013-02-13 06:45:00,
2013-02-13 01:46:00,31.3,22.0,29.76,West,277,0.0,0.0,68,0.00,,---,0.00,VWS V14.00,2013-02-13 06:46:00,
2013-02-13 01:47:00,31.3,22.0,29.76,West,277,0.0,0.0,68,0.00,,---,0.00,VWS V14.00,2013-02-13 06:47:00,
2013-02-13 01:51:00,31.2,21.9,29.76,West,278,0.0,1.0,68,0.00,,---,0.00,VWS V14.00,2013-02-13 06:51:00,
2013-02-13 01:52:00,31.2,21.9,29.76,West,277,1.0,1.0,68,0.00,,---,0.00,VWS V14.00,2013-02-13 06:52:00,
2013-02-13 01:56:00,30.9,21.9,29.76,West,277,1.0,2.0,69,0.00,,---,0.00,VWS V14.00,2013-02-13 06:56:00,
2013-02-13 01:57:00,30.9,21.9,29.76,West,277,0.0,2.0,69,0.00,,---,0.00,VWS V14.00,2013-02-13 06:57:00,
2013-02-13 02:00:00,30.9,21.9,29.75,West,277,2.0,3.0,69,0.00,,---,0.00,VWS V14.00,2013-02-13 07:00:00,
2013-02-13 02:01:00,30.7,21.8,29.75,West,260,1.0,3.0,69,0.00,,---,0.00,VWS V14.00,2013-02-13 07:01:00,
2013-02-13 02:02:00,30.7,21.8,29.75,West,260,0.0,3.0,69,0.00,,---,0.00,VWS V14.00,2013-02-13 07:02:00,
2013-02-13 02:06:00,30.7,21.8,29.75,West,264,0.0,3.0,69,0.00,,---,0.00,VWS V14.00,2013-02-13 07:06:00,
2013-02-13 02:07:00,30.7,21.8,29.75,West,264,1.0,3.0,69,0.00,,---,0.00,VWS V14.00,2013-02-13 07:07:00,
2013-02-13 02:11:00,30.7,21.8,29.75,West,262,1.0,3.0,69,0.00,,---,0.00,VWS V14.00,2013-02-13 07:11:00,
2013-02-13 02:12:00,30.7,21.8,29.75,West,262,1.0,3.0,69,0.00,,---,0.00,VWS V14.00,2013-02-13 07:12:00,
2013-02-13 02:13:00,30.7,21.8,29.75,WNW,294,2.0,5.0,69,0.00,,---,0.00,VWS V14.00,2013-02-13 07:13:00,
2013-02-13 02:15:00,30.7,21.8,29.76,WNW,294,0.0,5.0,69,0.00,,---,0.00,VWS V14.00,2013-02-13 07:15:00,
2013-02-13 02:16:00,30.7,21.4,29.76,WSW,252,2.0,3.0,68,0.00,,---,0.00,VWS V14.00,2013-02-13 07:16:00,
2013-02-13 02:17:00,30.7,21.4,29.76,WSW,252,1.0,3.0,68,0.00,,---,0.00,VWS V14.00,2013-02-13 07:17:00,
2013-02-13 02:18:00,30.7,21.4,29.76,WSW,253,0.0,3.0,68,0.00,,---,0.00,VWS V14.00,2013-02-13 07:18:00,
2013-02-13 02:22:00,30.9,21.6,29.76,West,260,0.0,8.0,68,0.00,,---,0.00,VWS V14.00,2013-02-13 07:22:00,
2013-02-13 02:23:00,30.9,21.6,29.76,West,261,0.0,8.0,68,0.00,,---,0.00,VWS V14.00,2013-02-13 07:23:00,
2013-02-13 02:27:00,30.9,21.2,29.76,West,274,2.0,8.0,67,0.00,,---,0.00,VWS V14.00,2013-02-13 07:27:00,
2013-02-13 02:28:00,30.9,21.2,29.76,West,274,2.0,8.0,67,0.00,,---,0.00,VWS V14.00,2013-02-13 07:28:00,
2013-02-13 02:30:00,30.9,21.2,29.76,West,274,2.0,8.0,67,0.00,,---,0.00,VWS V14.00,2013-02-13 07:30:00,
2013-02-13 02:32:00,31.0,21.3,29.76,WNW,288,0.0,3.0,67,0.00,,---,0.00,VWS V14.00,2013-02-13 07:32:00,
2013-02-13 02:33:00,31.0,21.3,29.76,WSW,255,1.0,4.0,67,0.00,,---,0.00,VWS V14.00,2013-02-13 07:33:00,
2013-02-13 02:37:00,30.9,21.2,29.76,West,266,0.0,4.0,67,0.00,,---,0.00,VWS V14.00,2013-02-13 07:37:00,
2013-02-13 02:38:00,30.9,21.2,29.76,West,266,2.0,4.0,67,0.00,,---,0.00,VWS V14.00,2013-02-13 07:38:00,
2013-02-13 02:42:00,30.9,21.2,29.76,West,266,3.0,4.0,67,0.00,,---,0.00,VWS V14.00,2013-02-13 07:42:00,
2013-02-13 02:43:00,30.9,21.2,29.76,West,266,1.0,4.0,67,0.00,,---,0.00,VWS V14.00,2013-02-13 07:43:00,
2013-02-13 02:45:00,30.9,21.2,29.76,West,266,1.0,4.0,67,0.00,,---,0.00,VWS V14.00,2013-02-13 07:45:00,
2013-02-13 02:47:00,30.9,21.2,29.76,West,266,0.0,3.0,67,0.00,,---,0.00,VWS V14.00,2013-02-13 07:47:00,
2013-02-13 02:48:00,30.9,21.2,29.76,West,266,1.0,3.0,67,0.00,,---,0.00,VWS V14.00,2013-02-13 07:48:00,
2013-02-13 02:49:00,30.9,21.2,29.76,West,266,0.0,3.0,67,0.00,,---,0.00,VWS V14.00,2013-02-13 07:49:00,
2013-02-13 02:52:00,30.9,20.9,29.76,West,266,1.0,3.0,66,0.00,,---,0.00,VWS V14.00,2013-02-13 07:52:00,
2013-02-13 02:53:00,30.9,20.9,29.76,West,266,2.0,3.0,66,0.00,,---,0.00,VWS V14.00,2013-02-13 07:53:00,
2013-02-13 02:54:00,30.9,20.9,29.76,West,266,2.0,3.0,66,0.00,,---,0.00,VWS V14.00,2013-02-13 07:54:00,
2013-02-13 02:57:00,31.0,21.0,29.76,West,266,0.0,3.0,66,0.00,,---,0.00,VWS V14.00,2013-02-13 07:57:00,
2013-02-13 02:58:00,31.0,21.0,29.76,West,266,1.0,3.0,66,0.00,,---,0.00,VWS V14.00,2013-02-13 07:58:00,
2013-02-13 02:59:00,31.0,21.0,29.76,West,266,0.0,3.0,66,0.00,,---,0.00,VWS V14.00,2013-02-13 07:59:00,
2013-02-13 03:00:00,31.0,21.0,29.76,West,266,0.0,3.0,66,0.00,,---,0.00,VWS V14.00,2013-02-13 08:00:00,
2013-02-13 03:02:00,31.0,21.0,29.76,SW,231,0.0,3.0,66,0.00,,---,0.00,VWS V14.00,2013-02-13 08:02:00,
2013-02-13 03:03:00,31.0,21.0,29.76,SW,231,2.0,3.0,66,0.00,,---,0.00,VWS V14.00,2013-02-13 08:03:00,
2013-02-13 03:04:00,31.0,21.0,29.76,SW,231,0.0,3.0,66,0.00,,---,0.00,VWS V14.00,2013-02-13 08:04:00,
2013-02-13 03:08:00,30.9,20.9,29.76,WSW,243,2.0,3.0,66,0.00,,---,0.00,VWS V14.00,2013-02-13 08:08:00,
2013-02-13 03:09:00,30.9,20.9,29.76,WSW,243,2.0,3.0,66,0.00,,---,0.00,VWS V14.00,2013-02-13 08:09:00,
2013-02-13 03:13:00,30.9,20.9,29.76,WSW,245,0.0,4.0,66,0.00,,---,0.00,VWS V14.00,2013-02-13 08:13:00,
2013-02-13 03:14:00,30.9,20.9,29.77,WSW,245,0.0,4.0,66,0.00,,---,0.00,VWS V14.00,2013-02-13 08:14:00,
2013-02-13 03:15:00,30.9,20.9,29.77,WSW,245,1.0,4.0,66,0.00,,---,0.00,VWS V14.00,2013-02-13 08:15:00,
2013-02-13 03:18:00,30.9,20.9,29.77,WSW,245,1.0,2.0,66,0.00,,---,0.00,VWS V14.00,2013-02-13 08:18:00,
2013-02-13 03:19:00,30.9,20.9,29.77,WSW,245,1.0,2.0,66,0.00,,---,0.00,VWS V14.00,2013-02-13 08:19:00,
2013-02-13 03:23:00,30.7,20.7,29.77,WSW,245,0.0,3.0,66,0.00,,---,0.00,VWS V14.00,2013-02-13 08:23:00,
2013-02-13 03:24:00,30.7,20.7,29.77,WSW,245,0.0,3.0,66,0.00,,---,0.00,VWS V14.00,2013-02-13 08:24:00,
2013-02-13 03:28:00,30.7,20.7,29.77,WSW,245,0.0,3.0,66,0.00,,---,0.00,VWS V14.00,2013-02-13 08:28:00,
2013-02-13 03:29:00,30.7,20.7,29.77,WSW,245,0.0,3.0,66,0.00,,---,0.00,VWS V14.00,2013-02-13 08:29:00,
2013-02-13 03:30:00,30.7,20.7,29.77,WSW,245,0.0,3.0,66,0.00,,---,0.00,VWS V14.00,2013-02-13 08:30:00,
2013-02-13 03:33:00,30.7,20.7,29.77,WSW,246,2.0,4.0,66,0.00,,---,0.00,VWS V14.00,2013-02-13 08:33:00,
2013-02-13 03:34:00,30.7,20.7,29.77,WSW,247,3.0,4.0,66,0.00,,---,0.00,VWS V14.00,2013-02-13 08:34:00,
2013-02-13 03:38:00,30.7,20.7,29.77,West,265,1.0,5.0,66,0.00,,---,0.00,VWS V14.00,2013-02-13 08:38:00,
2013-02-13 03:39:00,30.7,20.7,29.77,West,265,0.0,5.0,66,0.00,,---,0.00,VWS V14.00,2013-02-13 08:39:00,
2013-02-13 03:43:00,30.6,20.6,29.77,West,274,0.0,5.0,66,0.00,,---,0.00,VWS V14.00,2013-02-13 08:43:00,
2013-02-13 03:44:00,30.6,20.6,29.78,West,274,0.0,5.0,66,0.00,,---,0.00,VWS V14.00,2013-02-13 08:44:00,
2013-02-13 03:45:00,30.6,20.6,29.78,West,274,0.0,5.0,66,0.00,,---,0.00,VWS V14.00,2013-02-13 08:45:00,
2013-02-13 03:48:00,30.6,20.6,29.78,WSW,245,0.0,4.0,66,0.00,,---,0.00,VWS V14.00,2013-02-13 08:48:00,
2013-02-13 03:49:00,30.6,20.6,29.78,WSW,251,2.0,4.0,66,0.00,,---,0.00,VWS V14.00,2013-02-13 08:49:00,
2013-02-13 03:53:00,30.4,20.4,29.78,SW,236,0.0,4.0,66,0.00,,---,0.00,VWS V14.00,2013-02-13 08:53:00,
2013-02-13 03:54:00,30.4,20.4,29.78,SW,236,1.0,4.0,66,0.00,,---,0.00,VWS V14.00,2013-02-13 08:54:00,
2013-02-13 03:58:00,30.4,20.4,29.78,SW,229,0.0,4.0,66,0.00,,---,0.00,VWS V14.00,2013-02-13 08:58:00,
2013-02-13 03:59:00,30.4,20.4,29.78,SW,229,0.0,4.0,66,0.00,,---,0.00,VWS V14.00,2013-02-13 08:59:00,
2013-02-13 04:00:00,30.4,20.4,29.78,West,259,3.0,3.0,66,0.00,,---,0.00,VWS V14.00,2013-02-13 09:00:00,
2013-02-13 04:03:00,30.3,20.3,29.78,WSW,240,1.0,3.0,66,0.00,,---,0.00,VWS V14.00,2013-02-13 09:03:00,
2013-02-13 04:04:00,30.3,20.3,29.78,WSW,239,0.0,3.0,66,0.00,,---,0.00,VWS V14.00,2013-02-13 09:04:00,
2013-02-13 04:05:00,30.3,20.3,29.78,WSW,239,1.0,3.0,66,0.00,,---,0.00,VWS V14.00,2013-02-13 09:05:00,
2013-02-13 04:08:00,30.3,20.3,29.78,WSW,244,0.0,3.0,66,0.00,,---,0.00,VWS V14.00,2013-02-13 09:08:00,
2013-02-13 04:09:00,30.3,20.3,29.78,WSW,244,2.0,3.0,66,0.00,,---,0.00,VWS V14.00,2013-02-13 09:09:00,
2013-02-13 04:10:00,30.3,20.3,29.78,WSW,244,0.0,3.0,66,0.00,,---,0.00,VWS V14.00,2013-02-13 09:10:00,
2013-02-13 04:13:00,30.3,20.7,29.79,WSW,238,0.0,4.0,67,0.00,,---,0.00,VWS V14.00,2013-02-13 09:13:00,
2013-02-13 04:14:00,30.3,20.7,29.79,WSW,238,0.0,4.0,67,0.00,,---,0.00,VWS V14.00,2013-02-13 09:14:00,
2013-02-13 04:15:00,30.3,20.7,29.79,WSW,238,0.0,0.0,67,0.00,,---,0.00,VWS V14.00,2013-02-13 09:15:00,
2013-02-13 04:19:00,30.1,20.5,29.79,WSW,238,1.0,2.0,67,0.00,,---,0.00,VWS V14.00,2013-02-13 09:19:00,
2013-02-13 04:20:00,30.1,20.5,29.79,WSW,238,1.0,2.0,67,0.00,,---,0.00,VWS V14.00,2013-02-13 09:20:00,
2013-02-13 04:24:00,30.1,20.5,29.79,WSW,242,2.0,3.0,67,0.00,,---,0.00,VWS V14.00,2013-02-13 09:24:00,
2013-02-13 04:25:00,30.1,20.5,29.79,WSW,242,0.0,3.0,67,0.00,,---,0.00,VWS V14.00,2013-02-13 09:25:00,
2013-02-13 04:29:00,30.1,20.5,29.79,WSW,242,0.0,3.0,67,0.00,,---,0.00,VWS V14.00,2013-02-13 09:29:00,
2013-02-13 04:30:00,30.1,20.5,29.79,WSW,242,0.0,1.0,67,0.00,,---,0.00,VWS V14.00,2013-02-13 09:30:00,
2013-02-13 04:34:00,30.1,20.5,29.79,WSW,242,0.0,2.0,67,0.00,,---,0.00,VWS V14.00,2013-02-13 09:34:00,
2013-02-13 04:35:00,30.1,20.5,29.79,WSW,242,0.0,2.0,67,0.00,,---,0.00,VWS V14.00,2013-02-13 09:35:00,
2013-02-13 04:39:00,30.1,20.5,29.79,WSW,242,1.0,2.0,67,0.00,,---,0.00,VWS V14.00,2013-02-13 09:39:00,
2013-02-13 04:40:00,30.0,20.4,29.79,WSW,242,1.0,2.0,67,0.00,,---,0.00,VWS V14.00,2013-02-13 09:40:00,
2013-02-13 04:44:00,30.0,20.4,29.79,WSW,242,1.0,2.0,67,0.00,,---,0.00,VWS V14.00,2013-02-13 09:44:00,
2013-02-13 04:45:00,30.0,20.4,29.79,WSW,242,0.0,2.0,67,0.00,,---,0.00,VWS V14.00,2013-02-13 09:45:00,
2013-02-13 04:46:00,29.8,20.5,29.79,WSW,242,0.0,2.0,68,0.00,,---,0.00,VWS V14.00,2013-02-13 09:46:00,
2013-02-13 04:49:00,29.8,20.5,29.79,WSW,242,0.0,2.0,68,0.00,,---,0.00,VWS V14.00,2013-02-13 09:49:00,
2013-02-13 04:50:00,29.8,20.5,29.79,WSW,242,1.0,2.0,68,0.00,,---,0.00,VWS V14.00,2013-02-13 09:50:00,
2013-02-13 04:51:00,29.8,20.5,29.79,WSW,242,0.0,2.0,68,0.00,,---,0.00,VWS V14.00,2013-02-13 09:51:00,
2013-02-13 04:54:00,29.7,20.5,29.79,WSW,242,2.0,2.0,68,0.00,,---,0.00,VWS V14.00,2013-02-13 09:54:00,
2013-02-13 04:55:00,29.7,20.5,29.79,WSW,242,0.0,2.0,68,0.00,,---,0.00,VWS V14.00,2013-02-13 09:55:00,
2013-02-13 04:56:00,29.7,20.5,29.79,WSW,242,0.0,2.0,68,0.00,,---,0.00,VWS V14.00,2013-02-13 09:56:00,
2013-02-13 04:59:00,29.5,20.3,29.79,WSW,242,0.0,0.0,68,0.00,,---,0.00,VWS V14.00,2013-02-13 09:59:00,
2013-02-13 05:00:00,29.5,20.3,29.79,WSW,242,0.0,0.0,68,0.00,,---,0.00,VWS V14.00,2013-02-13 10:00:00,
2013-02-13 05:01:00,29.4,20.2,29.79,WSW,242,0.0,1.0,68,0.00,,---,0.00,VWS V14.00,2013-02-13 10:01:00,
2013-02-13 05:04:00,29.3,20.4,29.79,WSW,242,0.0,1.0,69,0.00,,---,0.00,VWS V14.00,2013-02-13 10:04:00,
2013-02-13 05:05:00,29.3,20.4,29.79,WSW,242,0.0,1.0,69,0.00,,---,0.00,VWS V14.00,2013-02-13 10:05:00,
2013-02-13 05:06:00,29.3,20.4,29.79,WSW,242,0.0,1.0,69,0.00,,---,0.00,VWS V14.00,2013-02-13 10:06:00,
2013-02-13 05:09:00,29.1,20.2,29.79,WSW,242,0.0,1.0,69,0.00,,---,0.00,VWS V14.00,2013-02-13 10:09:00,
2013-02-13 05:10:00,29.1,20.2,29.79,WSW,242,0.0,1.0,69,0.00,,---,0.00,VWS V14.00,2013-02-13 10:10:00,
2013-02-13 05:11:00,29.1,20.2,29.79,WSW,242,0.0,1.0,69,0.00,,---,0.00,VWS V14.00,2013-02-13 10:11:00,
2013-02-13 05:15:00,29.0,20.1,29.79,WSW,242,1.0,1.0,69,0.00,,---,0.00,VWS V14.00,2013-02-13 10:15:00,
2013-02-13 05:16:00,29.0,20.1,29.79,WSW,242,0.0,1.0,69,0.00,,---,0.00,VWS V14.00,2013-02-13 10:16:00,
2013-02-13 05:20:00,29.0,20.1,29.79,WSW,242,1.0,1.0,69,0.00,,---,0.00,VWS V14.00,2013-02-13 10:20:00,
2013-02-13 05:21:00,29.0,20.1,29.79,WSW,242,0.0,1.0,69,0.00,,---,0.00,VWS V14.00,2013-02-13 10:21:00,
2013-02-13 05:22:00,29.0,20.5,29.79,WSW,242,1.0,1.0,70,0.00,,---,0.00,VWS V14.00,2013-02-13 10:22:00,
2013-02-13 05:25:00,28.8,20.3,29.79,WSW,242,1.0,1.0,70,0.00,,---,0.00,VWS V14.00,2013-02-13 10:25:00,
2013-02-13 05:26:00,28.8,20.3,29.79,WSW,242,0.0,1.0,70,0.00,,---,0.00,VWS V14.00,2013-02-13 10:26:00,
2013-02-13 05:27:00,28.8,20.3,29.79,WSW,242,1.0,2.0,70,0.00,,---,0.00,VWS V14.00,2013-02-13 10:27:00,
2013-02-13 05:30:00,28.8,20.3,29.80,WSW,242,0.0,1.0,70,0.00,,---,0.00,VWS V14.00,2013-02-13 10:30:00,
2013-02-13 05:31:00,28.8,20.3,29.80,WSW,242,0.0,1.0,70,0.00,,---,0.00,VWS V14.00,2013-02-13 10:31:00,
2013-02-13 05:32:00,28.8,20.3,29.80,WSW,242,0.0,1.0,70,0.00,,---,0.00,VWS V14.00,2013-02-13 10:32:00,
2013-02-13 05:35:00,28.8,20.3,29.80,WSW,242,1.0,1.0,70,0.00,,---,0.00,VWS V14.00,2013-02-13 10:35:00,
2013-02-13 05:36:00,28.8,20.3,29.80,WSW,242,0.0,1.0,70,0.00,,---,0.00,VWS V14.00,2013-02-13 10:36:00,
2013-02-13 05:37:00,28.8,20.3,29.80,WSW,242,0.0,1.0,70,0.00,,---,0.00,VWS V14.00,2013-02-13 10:37:00,
2013-02-13 05:40:00,28.8,20.3,29.80,WSW,242,0.0,1.0,70,0.00,,---,0.00,VWS V14.00,2013-02-13 10:40:00,
2013-02-13 05:41:00,28.8,20.3,29.80,WSW,242,0.0,1.0,70,0.00,,---,0.00,VWS V14.00,2013-02-13 10:41:00,
2013-02-13 05:42:00,28.8,20.3,29.80,WSW,242,0.0,1.0,70,0.00,,---,0.00,VWS V14.00,2013-02-13 10:42:00,
2013-02-13 05:45:00,28.8,20.3,29.79,WSW,242,0.0,0.0,70,0.00,,---,0.00,VWS V14.00,2013-02-13 10:45:00,
2013-02-13 05:46:00,28.8,20.3,29.79,WSW,242,0.0,1.0,70,0.00,,---,0.00,VWS V14.00,2013-02-13 10:46:00,
2013-02-13 05:47:00,28.8,20.3,29.79,WSW,242,0.0,1.0,70,0.00,,---,0.00,VWS V14.00,2013-02-13 10:47:00,
2013-02-13 05:50:00,28.8,20.3,29.79,WSW,242,0.0,1.0,70,0.00,,---,0.00,VWS V14.00,2013-02-13 10:50:00,
2013-02-13 05:51:00,28.8,20.3,29.79,WSW,242,0.0,1.0,70,0.00,,---,0.00,VWS V14.00,2013-02-13 10:51:00,
2013-02-13 05:52:00,28.8,20.6,29.79,WSW,242,0.0,1.0,71,0.00,,---,0.00,VWS V14.00,2013-02-13 10:52:00,
2013-02-13 05:56:00,28.7,20.5,29.79,WSW,242,0.0,1.0,71,0.00,,---,0.00,VWS V14.00,2013-02-13 10:56:00,
2013-02-13 05:57:00,28.7,20.5,29.79,WSW,242,0.0,1.0,71,0.00,,---,0.00,VWS V14.00,2013-02-13 10:57:00,
2013-02-13 06:00:00,28.5,20.3,29.79,WSW,242,0.0,1.0,71,0.00,,---,0.00,VWS V14.00,2013-02-13 11:00:00,
2013-02-13 06:01:00,28.5,20.3,29.79,WSW,242,0.0,0.0,71,0.00,,---,0.00,VWS V14.00,2013-02-13 11:01:00,
2013-02-13 06:02:00,28.4,20.2,29.79,WSW,242,0.0,0.0,71,0.00,,---,0.00,VWS V14.00,2013-02-13 11:02:00,
2013-02-13 06:06:00,28.2,20.0,29.79,WSW,242,0.0,1.0,71,0.00,,---,0.00,VWS V14.00,2013-02-13 11:06:00,
2013-02-13 06:07:00,28.2,20.4,29.79,WSW,242,0.0,2.0,72,0.00,,---,0.00,VWS V14.00,2013-02-13 11:07:00,
2013-02-13 06:11:00,28.2,20.4,29.79,WSW,242,0.0,2.0,72,0.00,,---,0.00,VWS V14.00,2013-02-13 11:11:00,
2013-02-13 06:12:00,28.1,20.2,29.79,WSW,242,0.0,2.0,72,0.00,,---,0.00,VWS V14.00,2013-02-13 11:12:00,
2013-02-13 06:15:00,28.1,20.2,29.79,WSW,242,0.0,2.0,72,0.00,,---,0.00,VWS V14.00,2013-02-13 11:15:00,
2013-02-13 06:16:00,28.1,20.2,29.79,WSW,242,0.0,1.0,72,0.00,,---,0.00,VWS V14.00,2013-02-13 11:16:00,
2013-02-13 06:17:00,28.1,20.6,29.79,WSW,242,0.0,1.0,73,0.00,,---,0.00,VWS V14.00,2013-02-13 11:17:00,
2013-02-13 06:21:00,28.2,21.0,29.79,WSW,242,0.0,1.0,74,0.00,,---,0.00,VWS V14.00,2013-02-13 11:21:00,
2013-02-13 06:22:00,28.2,21.0,29.79,WSW,242,0.0,1.0,74,0.00,,---,0.00,VWS V14.00,2013-02-13 11:22:00,
2013-02-13 06:23:00,28.2,21.0,29.79,WSW,242,0.0,1.0,74,0.00,,---,0.00,VWS V14.00,2013-02-13 11:23:00,
2013-02-13 06:26:00,28.1,20.6,29.79,WSW,242,0.0,1.0,73,0.00,,---,0.00,VWS V14.00,2013-02-13 11:26:00,
2013-02-13 06:27:00,27.9,20.4,29.79,WSW,242,0.0,1.0,73,0.00,,---,0.00,VWS V14.00,2013-02-13 11:27:00,
2013-02-13 06:28:00,27.9,20.4,29.79,WSW,242,0.0,1.0,73,0.00,,---,0.00,VWS V14.00,2013-02-13 11:28:00,
2013-02-13 06:30:00,27.9,20.4,29.79,WSW,242,0.0,1.0,73,0.00,,---,0.00,VWS V14.00,2013-02-13 11:30:00,
2013-02-13 06:31:00,27.8,20.3,29.79,WSW,242,0.0,0.0,73,0.00,,---,0.00,VWS V14.00,2013-02-13 11:31:00,
2013-02-13 06:32:00,27.8,20.3,29.79,WSW,242,0.0,0.0,73,0.00,,---,0.00,VWS V14.00,2013-02-13 11:32:00,
2013-02-13 06:33:00,27.8,20.3,29.79,WSW,242,0.0,0.0,73,0.00,,---,0.00,VWS V14.00,2013-02-13 11:33:00,
2013-02-13 06:37:00,27.6,20.1,29.79,WSW,242,0.0,1.0,73,0.00,,---,0.00,VWS V14.00,2013-02-13 11:37:00,
2013-02-13 06:38:00,27.6,20.1,29.79,WSW,242,0.0,1.0,73,0.00,,---,0.00,VWS V14.00,2013-02-13 11:38:00,
2013-02-13 06:42:00,27.3,20.1,29.79,WSW,242,0.0,1.0,74,0.00,,---,0.00,VWS V14.00,2013-02-13 11:42:00,
2013-02-13 06:43:00,27.2,20.0,29.79,WSW,242,0.0,1.0,74,0.00,,---,0.00,VWS V14.00,2013-02-13 11:43:00,
2013-02-13 06:45:00,27.2,20.0,29.79,WSW,242,0.0,1.0,74,0.00,,---,0.00,VWS V14.00,2013-02-13 11:45:00,
2013-02-13 06:47:00,27.0,19.8,29.79,WSW,242,0.0,0.0,74,0.00,,---,0.00,VWS V14.00,2013-02-13 11:47:00,
2013-02-13 06:48:00,27.0,19.8,29.79,WSW,242,0.0,0.0,74,0.00,,---,0.00,VWS V14.00,2013-02-13 11:48:00,
2013-02-13 06:52:00,27.0,20.1,29.79,WSW,242,0.0,1.0,75,0.00,,---,0.00,VWS V14.00,2013-02-13 11:52:00,
2013-02-13 06:53:00,27.0,20.1,29.79,WSW,242,0.0,1.0,75,0.00,,---,0.00,VWS V14.00,2013-02-13 11:53:00,
2013-02-13 06:57:00,27.2,20.0,29.79,WSW,242,0.0,1.0,74,0.00,,---,0.00,VWS V14.00,2013-02-13 11:57:00,
2013-02-13 06:58:00,27.2,20.0,29.79,WSW,242,0.0,1.0,74,0.00,,---,0.00,VWS V14.00,2013-02-13 11:58:00,
2013-02-13 07:00:00,27.2,20.0,29.80,WSW,242,0.0,1.0,74,0.00,,---,0.00,VWS V14.00,2013-02-13 12:00:00,
2013-02-13 07:02:00,27.2,20.0,29.80,WSW,242,0.0,0.0,74,0.00,,---,0.00,VWS V14.00,2013-02-13 12:02:00,
2013-02-13 07:03:00,27.2,20.0,29.80,WSW,242,0.0,1.0,74,0.00,,---,0.00,VWS V14.00,2013-02-13 12:03:00,
2013-02-13 07:07:00,27.2,20.0,29.80,WSW,242,0.0,1.0,74,0.00,,---,0.00,VWS V14.00,2013-02-13 12:07:00,
2013-02-13 07:08:00,27.2,20.0,29.80,WSW,242,0.0,1.0,74,0.00,,---,0.00,VWS V14.00,2013-02-13 12:08:00,
2013-02-13 07:09:00,27.2,20.0,29.80,WSW,242,0.0,1.0,74,0.00,,---,0.00,VWS V14.00,2013-02-13 12:09:00,
2013-02-13 07:12:00,27.2,20.0,29.80,WSW,242,0.0,1.0,74,0.00,,---,0.00,VWS V14.00,2013-02-13 12:12:00,
2013-02-13 07:13:00,27.2,20.0,29.80,WSW,242,0.0,1.0,74,0.00,,---,0.00,VWS V14.00,2013-02-13 12:13:00,
2013-02-13 07:14:00,27.2,20.3,29.81,WSW,242,0.0,1.0,75,0.00,,---,0.00,VWS V14.00,2013-02-13 12:14:00,
2013-02-13 07:15:00,27.2,20.3,29.81,WSW,242,0.0,1.0,75,0.00,,---,0.00,VWS V14.00,2013-02-13 12:15:00,
2013-02-13 07:17:00,27.3,20.1,29.81,WSW,242,0.0,1.0,74,0.00,,---,0.00,VWS V14.00,2013-02-13 12:17:00,
2013-02-13 07:18:00,27.3,20.1,29.81,WSW,242,0.0,1.0,74,0.00,,---,0.00,VWS V14.00,2013-02-13 12:18:00,
2013-02-13 07:19:00,27.3,20.1,29.81,WSW,242,0.0,1.0,74,0.00,,---,0.00,VWS V14.00,2013-02-13 12:19:00,
2013-02-13 07:22:00,27.3,20.1,29.81,WSW,242,0.0,1.0,74,0.00,,---,0.00,VWS V14.00,2013-02-13 12:22:00,
2013-02-13 07:23:00,27.5,20.3,29.81,WSW,242,0.0,1.0,74,0.00,,---,0.00,VWS V14.00,2013-02-13 12:23:00,
2013-02-13 07:24:00,27.5,20.3,29.81,WSW,242,0.0,1.0,74,0.00,,---,0.00,VWS V14.00,2013-02-13 12:24:00,
2013-02-13 07:27:00,27.5,20.3,29.81,WSW,242,0.0,1.0,74,0.00,,---,0.00,VWS V14.00,2013-02-13 12:27:00,
2013-02-13 07:28:00,27.5,20.3,29.81,WSW,242,0.0,1.0,74,0.00,,---,0.00,VWS V14.00,2013-02-13 12:28:00,
2013-02-13 07:29:00,27.6,20.4,29.81,WSW,242,1.0,1.0,74,0.00,,---,0.00,VWS V14.00,2013-02-13 12:29:00,
2013-02-13 07:30:00,27.6,20.4,29.81,WSW,242,1.0,1.0,74,0.00,,---,0.00,VWS V14.00,2013-02-13 12:30:00,
2013-02-13 07:32:00,27.8,20.6,29.81,WSW,242,0.0,1.0,74,0.00,,---,0.00,VWS V14.00,2013-02-13 12:32:00,
2013-02-13 07:33:00,27.8,20.6,29.81,WSW,242,0.0,1.0,74,0.00,,---,0.00,VWS V14.00,2013-02-13 12:33:00,
2013-02-13 07:34:00,27.8,20.6,29.81,WSW,242,0.0,1.0,74,0.00,,---,0.00,VWS V14.00,2013-02-13 12:34:00,
2013-02-13 07:37:00,27.9,20.7,29.81,WSW,242,0.0,2.0,74,0.00,,---,0.00,VWS V14.00,2013-02-13 12:37:00,
2013-02-13 07:38:00,27.9,20.7,29.81,WSW,242,0.0,2.0,74,0.00,,---,0.00,VWS V14.00,2013-02-13 12:38:00,
2013-02-13 07:39:00,28.1,20.6,29.81,WSW,242,0.0,2.0,73,0.00,,---,0.00,VWS V14.00,2013-02-13 12:39:00,
2013-02-13 07:40:00,28.1,20.6,29.81,WSW,242,0.0,2.0,73,0.00,,---,0.00,VWS V14.00,2013-02-13 12:40:00,
2013-02-13 07:43:00,28.2,20.7,29.81,WSW,242,0.0,2.0,73,0.00,,---,0.00,VWS V14.00,2013-02-13 12:43:00,
2013-02-13 07:44:00,28.4,20.9,29.80,WSW,242,0.0,2.0,73,0.00,,---,0.00,VWS V14.00,2013-02-13 12:44:00,
2013-02-13 07:45:00,28.4,20.9,29.80,WSW,242,0.0,0.0,73,0.00,,---,0.00,VWS V14.00,2013-02-13 12:45:00,
2013-02-13 07:48:00,28.5,20.6,29.80,WSW,242,0.0,1.0,72,0.00,,---,0.00,VWS V14.00,2013-02-13 12:48:00,
2013-02-13 07:49:00,28.7,20.8,29.80,WSW,242,1.0,1.0,72,0.00,,---,0.00,VWS V14.00,2013-02-13 12:49:00,
2013-02-13 07:50:00,28.7,20.8,29.80,WSW,242,0.0,1.0,72,0.00,,---,0.00,VWS V14.00,2013-02-13 12:50:00,
2013-02-13 07:53:00,28.8,20.9,29.80,WSW,242,0.0,1.0,72,0.00,,---,0.00,VWS V14.00,2013-02-13 12:53:00,
2013-02-13 07:54:00,28.8,20.9,29.80,WSW,242,0.0,2.0,72,0.00,,---,0.00,VWS V14.00,2013-02-13 12:54:00,
2013-02-13 07:55:00,29.0,21.1,29.80,WSW,242,2.0,3.0,72,0.00,,---,0.00,VWS V14.00,2013-02-13 12:55:00,
2013-02-13 07:58:00,29.1,20.9,29.80,WSW,242,0.0,3.0,71,0.00,,---,0.00,VWS V14.00,2013-02-13 12:58:00,
2013-02-13 07:59:00,29.3,21.1,29.80,WSW,242,2.0,3.0,71,0.00,,---,0.00,VWS V14.00,2013-02-13 12:59:00,
2013-02-13 08:00:00,29.3,21.1,29.80,WSW,242,0.0,2.0,71,0.00,,---,0.00,VWS V14.00,2013-02-13 13:00:00,
2013-02-13 08:03:00,29.4,21.2,29.80,WSW,242,0.0,2.0,71,0.00,,---,0.00,VWS V14.00,2013-02-13 13:03:00,
2013-02-13 08:04:00,29.5,20.9,29.80,WSW,242,0.0,2.0,70,0.00,,---,0.00,VWS V14.00,2013-02-13 13:04:00,
2013-02-13 08:05:00,29.5,20.9,29.80,WSW,242,0.0,2.0,70,0.00,,---,0.00,VWS V14.00,2013-02-13 13:05:00,
2013-02-13 08:08:00,29.7,21.1,29.80,WSW,242,0.0,2.0,70,0.00,,---,0.00,VWS V14.00,2013-02-13 13:08:00,
2013-02-13 08:10:00,29.7,21.1,29.80,WSW,242,0.0,2.0,70,0.00,,---,0.00,VWS V14.00,2013-02-13 13:10:00,
2013-02-13 08:13:00,30.0,21.4,29.80,WSW,242,0.0,2.0,70,0.00,,---,0.00,VWS V14.00,2013-02-13 13:13:00,
2013-02-13 08:15:00,30.1,21.5,29.80,WSW,242,0.0,0.0,70,0.00,,---,0.00,VWS V14.00,2013-02-13 13:15:00,
2013-02-13 08:18:00,30.3,21.4,29.80,WSW,242,0.0,2.0,69,0.00,,---,0.00,VWS V14.00,2013-02-13 13:18:00,
2013-02-13 08:20:00,30.4,21.5,29.80,WSW,242,0.0,2.0,69,0.00,,---,0.00,VWS V14.00,2013-02-13 13:20:00,
2013-02-13 08:21:00,30.6,21.3,29.80,WSW,242,0.0,2.0,68,0.00,,---,0.00,VWS V14.00,2013-02-13 13:21:00,
2013-02-13 08:23:00,30.7,21.4,29.80,WSW,242,0.0,2.0,68,0.00,,---,0.00,VWS V14.00,2013-02-13 13:23:00,
2013-02-13 08:25:00,30.7,21.4,29.80,WSW,242,0.0,2.0,68,0.00,,---,0.00,VWS V14.00,2013-02-13 13:25:00,
2013-02-13 08:26:00,30.9,21.6,29.80,WSW,242,0.0,2.0,68,0.00,,---,0.00,VWS V14.00,2013-02-13 13:26:00,
2013-02-13 08:28:00,31.0,21.3,29.80,WSW,242,0.0,2.0,67,0.00,,---,0.00,VWS V14.00,2013-02-13 13:28:00,
2013-02-13 08:30:00,31.2,21.5,29.80,WSW,242,0.0,0.0,67,0.00,,---,0.00,VWS V14.00,2013-02-13 13:30:00,
2013-02-13 08:31:00,31.3,21.6,29.80,WSW,242,0.0,0.0,67,0.00,,---,0.00,VWS V14.00,2013-02-13 13:31:00,
2013-02-13 08:33:00,31.5,21.8,29.80,WSW,242,0.0,0.0,67,0.00,,---,0.00,VWS V14.00,2013-02-13 13:33:00,
2013-02-13 08:35:00,31.6,21.6,29.80,WSW,242,0.0,0.0,66,0.00,,---,0.00,VWS V14.00,2013-02-13 13:35:00,
2013-02-13 08:36:00,31.6,21.6,29.80,WSW,242,0.0,2.0,66,0.00,,---,0.00,VWS V14.00,2013-02-13 13:36:00,
2013-02-13 08:38:00,31.9,21.5,29.80,WSW,242,1.0,2.0,65,0.00,,---,0.00,VWS V14.00,2013-02-13 13:38:00,
2013-02-13 08:40:00,31.9,21.5,29.80,WSW,242,0.0,2.0,65,0.00,,---,0.00,VWS V14.00,2013-02-13 13:40:00,
2013-02-13 08:42:00,32.2,21.8,29.80,WSW,242,0.0,2.0,65,0.00,,---,0.00,VWS V14.00,2013-02-13 13:42:00,
2013-02-13 08:43:00,32.4,21.6,29.80,WSW,242,0.0,2.0,64,0.00,,---,0.00,VWS V14.00,2013-02-13 13:43:00,
2013-02-13 08:44:00,32.5,21.7,29.80,WSW,242,0.0,2.0,64,0.00,,---,0.00,VWS V14.00,2013-02-13 13:44:00,
2013-02-13 08:45:00,32.7,21.9,29.80,WSW,242,2.0,4.0,64,0.00,,---,0.00,VWS V14.00,2013-02-13 13:45:00,
2013-02-13 08:47:00,32.8,21.6,29.80,NNW,334,3.0,4.0,63,0.00,,---,0.00,VWS V14.00,2013-02-13 13:47:00,
2013-02-13 08:49:00,33.1,21.5,29.80,NNW,333,1.0,4.0,62,0.00,,---,0.00,VWS V14.00,2013-02-13 13:49:00,
2013-02-13 08:50:00,33.2,21.6,29.80,West,268,3.0,4.0,62,0.00,,---,0.00,VWS V14.00,2013-02-13 13:50:00,
2013-02-13 08:52:00,33.4,21.4,29.80,NW,304,0.0,4.0,61,0.00,,---,0.00,VWS V14.00,2013-02-13 13:52:00,
2013-02-13 08:54:00,33.5,21.1,29.80,NW,310,2.0,4.0,60,0.00,,---,0.00,VWS V14.00,2013-02-13 13:54:00,
2013-02-13 08:55:00,33.7,21.3,29.80,NNW,340,0.0,4.0,60,0.00,,---,0.00,VWS V14.00,2013-02-13 13:55:00,
2013-02-13 08:57:00,33.8,21.4,29.80,NNW,340,0.0,4.0,60,0.00,,---,0.00,VWS V14.00,2013-02-13 13:57:00,
2013-02-13 08:59:00,34.1,21.7,29.80,West,274,0.0,4.0,60,0.00,,---,0.00,VWS V14.00,2013-02-13 13:59:00,
2013-02-13 09:00:00,34.1,21.3,29.80,West,278,1.0,1.0,59,0.00,,---,0.00,VWS V14.00,2013-02-13 14:00:00,
2013-02-13 09:02:00,34.4,21.6,29.80,West,278,1.0,2.0,59,0.00,,---,0.00,VWS V14.00,2013-02-13 14:02:00,
2013-02-13 09:04:00,34.6,21.8,29.80,NNW,348,2.0,4.0,59,0.00,,---,0.00,VWS V14.00,2013-02-13 14:04:00,
2013-02-13 09:05:00,34.7,21.5,29.80,NNW,334,2.0,4.0,58,0.00,,---,0.00,VWS V14.00,2013-02-13 14:05:00,
2013-02-13 09:07:00,34.9,21.6,29.80,NNW,346,0.0,4.0,58,0.00,,---,0.00,VWS V14.00,2013-02-13 14:07:00,
2013-02-13 09:09:00,35.0,21.7,29.80,NNW,345,0.0,4.0,58,0.00,,---,0.00,VWS V14.00,2013-02-13 14:09:00,
2013-02-13 09:10:00,35.2,21.5,29.80,NNW,345,0.0,4.0,57,0.00,,---,0.00,VWS V14.00,2013-02-13 14:10:00,
2013-02-13 09:12:00,35.2,21.9,29.80,NW,304,1.0,4.0,58,0.00,,---,0.00,VWS V14.00,2013-02-13 14:12:00,
2013-02-13 09:14:00,35.3,21.6,29.81,NNW,333,1.0,4.0,57,0.00,,---,0.00,VWS V14.00,2013-02-13 14:14:00,
2013-02-13 09:15:00,35.3,21.2,29.81,NNW,333,0.0,4.0,56,0.00,,---,0.00,VWS V14.00,2013-02-13 14:15:00,
2013-02-13 09:16:00,35.5,21.4,29.81,West,263,0.0,5.0,56,0.00,,---,0.00,VWS V14.00,2013-02-13 14:16:00,
2013-02-13 09:17:00,35.6,21.5,29.81,NW,310,0.0,5.0,56,0.00,,---,0.00,VWS V14.00,2013-02-13 14:17:00,
2013-02-13 09:19:00,35.6,21.5,29.81,West,262,0.0,5.0,56,0.00,,---,0.00,VWS V14.00,2013-02-13 14:19:00,
2013-02-13 09:20:00,35.8,21.6,29.81,NW,324,4.0,5.0,56,0.00,,---,0.00,VWS V14.00,2013-02-13 14:20:00,
2013-02-13 09:21:00,35.8,21.6,29.81,North,349,1.0,5.0,56,0.00,,---,0.00,VWS V14.00,2013-02-13 14:21:00,
2013-02-13 09:22:00,35.8,21.2,29.81,WNW,289,1.0,5.0,55,0.00,,---,0.00,VWS V14.00,2013-02-13 14:22:00,
2013-02-13 09:24:00,35.9,21.8,29.81,WNW,288,0.0,5.0,56,0.00,,---,0.00,VWS V14.00,2013-02-13 14:24:00,
2013-02-13 09:25:00,35.9,21.8,29.81,WNW,288,0.0,5.0,56,0.00,,---,0.00,VWS V14.00,2013-02-13 14:25:00,
2013-02-13 09:26:00,36.0,21.8,29.81,WNW,288,0.0,5.0,56,0.00,,---,0.00,VWS V14.00,2013-02-13 14:26:00,
2013-02-13 09:28:00,36.0,21.8,29.81,WNW,288,0.0,5.0,56,0.00,,---,0.00,VWS V14.00,2013-02-13 14:28:00,
2013-02-13 09:29:00,36.2,21.6,29.80,NNW,345,5.0,7.0,55,0.00,,---,0.00,VWS V14.00,2013-02-13 14:29:00,
2013-02-13 09:30:00,36.2,21.6,29.80,NNW,344,2.0,7.0,55,0.00,,---,0.00,VWS V14.00,2013-02-13 14:30:00,
2013-02-13 09:31:00,36.3,21.7,29.80,NW,326,4.0,7.0,55,0.00,,---,0.00,VWS V14.00,2013-02-13 14:31:00,
2013-02-13 09:33:00,36.3,21.3,29.80,NNW,333,3.0,7.0,54,0.00,,---,0.00,VWS V14.00,2013-02-13 14:33:00,
2013-02-13 09:35:00,36.3,20.8,29.80,NNW,333,2.0,7.0,53,0.00,,---,0.00,VWS V14.00,2013-02-13 14:35:00,
2013-02-13 09:36:00,36.3,21.3,29.80,NNW,333,2.0,7.0,54,0.00,,---,0.00,VWS V14.00,2013-02-13 14:36:00,
2013-02-13 09:38:00,36.3,21.3,29.80,NNW,334,0.0,7.0,54,0.00,,---,0.00,VWS V14.00,2013-02-13 14:38:00,
2013-02-13 09:40:00,36.5,21.5,29.80,NNW,334,0.0,7.0,54,0.00,,---,0.00,VWS V14.00,2013-02-13 14:40:00,
2013-02-13 09:41:00,36.5,21.0,29.80,NNW,334,2.0,7.0,53,0.00,,---,0.00,VWS V14.00,2013-02-13 14:41:00,
2013-02-13 09:43:00,36.5,21.0,29.80,NNW,343,3.0,7.0,53,0.00,,---,0.00,VWS V14.00,2013-02-13 14:43:00,
2013-02-13 09:45:00,36.5,21.0,29.79,North,2,4.0,8.0,53,0.00,,---,0.00,VWS V14.00,2013-02-13 14:45:00,
2013-02-13 09:46:00,36.5,21.0,29.79,NW,318,2.0,8.0,53,0.00,,---,0.00,VWS V14.00,2013-02-13 14:46:00,
2013-02-13 09:48:00,36.5,21.0,29.79,NNW,328,2.0,8.0,53,0.00,,---,0.00,VWS V14.00,2013-02-13 14:48:00,
2013-02-13 09:50:00,36.5,21.0,29.79,NNW,340,4.0,8.0,53,0.00,,---,0.00,VWS V14.00,2013-02-13 14:50:00,
2013-02-13 09:52:00,36.5,21.0,29.79,NNW,327,0.0,8.0,53,0.00,,---,0.00,VWS V14.00,2013-02-13 14:52:00,
2013-02-13 09:53:00,36.6,21.1,29.79,NNW,327,0.0,8.0,53,0.00,,---,0.00,VWS V14.00,2013-02-13 14:53:00,
2013-02-13 09:55:00,36.8,21.3,29.79,WSW,250,3.0,8.0,53,0.00,,---,0.00,VWS V14.00,2013-02-13 14:55:00,
2013-02-13 09:57:00,36.9,21.8,29.79,NNW,342,3.0,8.0,54,0.00,,---,0.00,VWS V14.00,2013-02-13 14:57:00,
2013-02-13 09:58:00,36.9,21.4,29.79,NNW,342,3.0,8.0,53,0.00,,---,0.00,VWS V14.00,2013-02-13 14:58:00,
2013-02-13 10:00:00,37.0,21.0,29.79,NNW,333,1.0,5.0,52,0.00,,---,0.00,VWS V14.00,2013-02-13 15:00:00,
2013-02-13 10:02:00,37.0,21.0,29.79,North,349,4.0,7.0,52,0.00,,---,0.00,VWS V14.00,2013-02-13 15:02:00,
2013-02-13 10:03:00,37.0,21.0,29.79,NNW,328,0.0,7.0,52,0.00,,---,0.00,VWS V14.00,2013-02-13 15:03:00,
2013-02-13 10:05:00,37.0,21.0,29.79,NNW,340,0.0,7.0,52,0.00,,---,0.00,VWS V14.00,2013-02-13 15:05:00,
2013-02-13 10:07:00,37.2,21.2,29.79,NNW,337,1.0,7.0,52,0.00,,---,0.00,VWS V14.00,2013-02-13 15:07:00,
2013-02-13 10:08:00,37.2,21.2,29.79,WSW,250,3.0,7.0,52,0.00,,---,0.00,VWS V14.00,2013-02-13 15:08:00,
2013-02-13 10:10:00,37.3,21.3,29.79,North,3,0.0,7.0,52,0.00,,---,0.00,VWS V14.00,2013-02-13 15:10:00,
2013-02-13 10:12:00,37.5,21.5,29.79,North,0,0.0,7.0,52,0.00,,---,0.00,VWS V14.00,2013-02-13 15:12:00,
2013-02-13 10:13:00,37.5,21.0,29.79,West,264,5.0,7.0,51,0.00,,---,0.00,VWS V14.00,2013-02-13 15:13:00,
2013-02-13 10:15:00,37.6,21.6,29.78,NW,326,5.0,8.0,52,0.00,,---,0.00,VWS V14.00,2013-02-13 15:15:00,
2013-02-13 10:17:00,37.5,21.0,29.78,North,356,2.0,8.0,51,0.00,,---,0.00,VWS V14.00,2013-02-13 15:17:00,
2013-02-13 10:18:00,37.5,21.0,29.78,NNW,337,2.0,8.0,51,0.00,,---,0.00,VWS V14.00,2013-02-13 15:18:00,
2013-02-13 10:21:00,37.5,21.0,29.78,NW,307,1.0,8.0,51,0.00,,---,0.00,VWS V14.00,2013-02-13 15:21:00,
2013-02-13 10:22:00,37.6,20.7,29.78,West,275,0.0,8.0,50,0.00,,---,0.00,VWS V14.00,2013-02-13 15:22:00,
2013-02-13 10:23:00,37.6,20.7,29.78,West,275,0.0,8.0,50,0.00,,---,0.00,VWS V14.00,2013-02-13 15:23:00,
2013-02-13 10:26:00,37.6,21.1,29.78,West,269,0.0,8.0,51,0.00,,---,0.00,VWS V14.00,2013-02-13 15:26:00,
2013-02-13 10:27:00,37.8,21.3,29.78,NNW,338,2.0,8.0,51,0.00,,---,0.00,VWS V14.00,2013-02-13 15:27:00,
2013-02-13 10:28:00,37.8,20.8,29.78,NNW,336,1.0,8.0,50,0.00,,---,0.00,VWS V14.00,2013-02-13 15:28:00,
2013-02-13 10:30:00,39.8,21.2,29.76,NNW,333,2.0,5.0,47,0.00,,---,0.00,VWS V14.00,2013-02-13 15:30:00,
2013-02-13 10:31:00,37.8,20.4,29.78,North,359,1.0,5.0,49,0.00,,---,0.00,VWS V14.00,2013-02-13 15:31:00,
2013-02-13 10:33:00,37.8,20.4,29.78,NNW,339,1.0,6.0,49,0.00,,---,0.00,VWS V14.00,2013-02-13 15:33:00,
2013-02-13 10:36:00,37.9,20.9,29.78,North,349,2.0,6.0,50,0.00,,---,0.00,VWS V14.00,2013-02-13 15:36:00,
2013-02-13 10:38:00,37.9,20.9,29.78,North,351,0.0,6.0,50,0.00,,---,0.00,VWS V14.00,2013-02-13 15:38:00,
2013-02-13 10:41:00,38.2,21.2,29.78,North,356,0.0,6.0,50,0.00,,---,0.00,VWS V14.00,2013-02-13 15:41:00,
2013-02-13 10:42:00,38.2,21.2,29.78,North,356,2.0,6.0,50,0.00,,---,0.00,VWS V14.00,2013-02-13 15:42:00,
2013-02-13 10:43:00,38.3,21.3,29.78,NW,321,4.0,6.0,50,0.00,,---,0.00,VWS V14.00,2013-02-13 15:43:00,
2013-02-13 10:45:00,38.3,20.8,29.77,NNW,336,2.0,6.0,49,0.00,,---,0.00,VWS V14.00,2013-02-13 15:45:00,
2013-02-13 10:46:00,38.3,20.4,29.77,North,359,0.0,5.0,48,0.00,,---,0.00,VWS V14.00,2013-02-13 15:46:00,
2013-02-13 10:47:00,38.3,20.4,29.77,North,359,0.0,5.0,48,0.00,,---,0.00,VWS V14.00,2013-02-13 15:47:00,
2013-02-13 10:48:00,38.3,20.4,29.77,North,359,0.0,5.0,48,0.00,,---,0.00,VWS V14.00,2013-02-13 15:48:00,
2013-02-13 10:51:00,38.5,21.0,29.77,SW,227,0.0,5.0,49,0.00,,---,0.00,VWS V14.00,2013-02-13 15:51:00,
2013-02-13 10:52:00,38.5,21.0,29.77,WSW,250,4.0,5.0,49,0.00,,---,0.00,VWS V14.00,2013-02-13 15:52:00,
2013-02-13 10:53:00,38.6,20.6,29.77,West,267,2.0,5.0,48,0.00,,---,0.00,VWS V14.00,2013-02-13 15:53:00,
2013-02-13 10:56:00,38.8,20.8,29.77,NNW,345,2.0,5.0,48,0.00,,---,0.00,VWS V14.00,2013-02-13 15:56:00,
2013-02-13 10:57:00,38.8,20.8,29.77,NNW,345,2.0,5.0,48,0.00,,---,0.00,VWS V14.00,2013-02-13 15:57:00,
2013-02-13 10:58:00,38.8,20.8,29.77,NNW,330,2.0,5.0,48,0.00,,---,0.00,VWS V14.00,2013-02-13 15:58:00,
2013-02-13 11:00:00,38.8,20.3,29.76,NNW,335,0.0,6.0,47,0.00,,---,0.00,VWS V14.00,2013-02-13 16:00:00,
2013-02-13 11:01:00,38.8,20.8,29.76,NNW,338,0.0,3.0,48,0.00,,---,0.00,VWS V14.00,2013-02-13 16:01:00,
2013-02-13 11:02:00,38.8,20.8,29.76,NW,324,3.0,3.0,48,0.00,,---,0.00,VWS V14.00,2013-02-13 16:02:00,
2013-02-13 11:03:00,38.8,20.8,29.76,North,352,0.0,6.0,48,0.00,,---,0.00,VWS V14.00,2013-02-13 16:03:00,
2013-02-13 11:04:00,38.8,20.8,29.76,NW,321,1.0,6.0,48,0.00,,---,0.00,VWS V14.00,2013-02-13 16:04:00,
2013-02-13 11:07:00,38.8,20.8,29.76,NNW,344,1.0,6.0,48,0.00,,---,0.00,VWS V14.00,2013-02-13 16:07:00,
2013-02-13 11:08:00,38.9,21.4,29.76,WSW,245,1.0,6.0,49,0.00,,---,0.00,VWS V14.00,2013-02-13 16:08:00,
2013-02-13 11:09:00,38.9,21.4,29.76,WSW,245,0.0,6.0,49,0.00,,---,0.00,VWS V14.00,2013-02-13 16:09:00,
2013-02-13 11:12:00,39.2,21.2,29.76,North,355,0.0,6.0,48,0.00,,---,0.00,VWS V14.00,2013-02-13 16:12:00,
2013-02-13 11:13:00,39.2,21.2,29.76,North,356,1.0,6.0,48,0.00,,---,0.00,VWS V14.00,2013-02-13 16:13:00,
2013-02-13 11:14:00,39.2,20.7,29.76,North,356,0.0,6.0,47,0.00,,---,0.00,VWS V14.00,2013-02-13 16:14:00,
2013-02-13 11:15:00,39.2,20.7,29.76,West,269,2.0,6.0,47,0.00,,---,0.00,VWS V14.00,2013-02-13 16:15:00,
2013-02-13 11:17:00,39.3,21.8,29.76,WSW,252,0.0,3.0,49,0.00,,---,0.00,VWS V14.00,2013-02-13 16:17:00,
2013-02-13 11:18:00,39.5,21.0,29.76,WSW,252,0.0,3.0,47,0.00,,---,0.00,VWS V14.00,2013-02-13 16:18:00,
2013-02-13 11:19:00,39.5,21.5,29.76,WSW,252,0.0,3.0,48,0.00,,---,0.00,VWS V14.00,2013-02-13 16:19:00,
2013-02-13 11:22:00,39.6,21.0,29.76,NNW,334,1.0,5.0,47,0.00,,---,0.00,VWS V14.00,2013-02-13 16:22:00,
2013-02-13 11:24:00,39.6,21.5,29.76,NNW,337,0.0,5.0,48,0.00,,---,0.00,VWS V14.00,2013-02-13 16:24:00,
2013-02-13 11:27:00,39.8,21.2,29.76,NNW,346,0.0,5.0,47,0.00,,---,0.00,VWS V14.00,2013-02-13 16:27:00,
2013-02-13 11:29:00,39.8,21.7,29.76,NNW,333,3.0,5.0,48,0.00,,---,0.00,VWS V14.00,2013-02-13 16:29:00,
2013-02-13 11:30:00,39.8,21.2,29.76,NNW,333,2.0,5.0,47,0.00,,---,0.00,VWS V14.00,2013-02-13 16:30:00,
2013-02-13 11:32:00,39.6,21.0,29.76,NNW,330,0.0,3.0,47,0.00,,---,0.00,VWS V14.00,2013-02-13 16:32:00,
2013-02-13 11:33:00,39.6,21.0,29.76,WSW,257,2.0,3.0,47,0.00,,---,0.00,VWS V14.00,2013-02-13 16:33:00,
2013-02-13 11:34:00,39.8,21.2,29.76,WSW,254,1.0,3.0,47,0.00,,---,0.00,VWS V14.00,2013-02-13 16:34:00,
2013-02-13 11:37:00,39.9,21.8,29.76,WSW,245,0.0,6.0,48,0.00,,---,0.00,VWS V14.00,2013-02-13 16:37:00,
2013-02-13 11:38:00,39.9,21.8,29.76,WSW,240,2.0,6.0,48,0.00,,---,0.00,VWS V14.00,2013-02-13 16:38:00,
2013-02-13 11:39:00,39.9,21.8,29.76,SW,224,4.0,6.0,48,0.00,,---,0.00,VWS V14.00,2013-02-13 16:39:00,
2013-02-13 11:42:00,40.1,21.5,29.76,North,349,0.0,6.0,47,0.00,,---,0.00,VWS V14.00,2013-02-13 16:42:00,
2013-02-13 11:43:00,40.1,21.5,29.76,North,349,0.0,6.0,47,0.00,,---,0.00,VWS V14.00,2013-02-13 16:43:00,
2013-02-13 11:44:00,40.1,21.5,29.76,North,349,0.0,6.0,47,0.00,,---,0.00,VWS V14.00,2013-02-13 16:44:00,
2013-02-13 11:45:00,40.1,21.5,29.76,West,272,3.0,6.0,47,0.00,,---,0.00,VWS V14.00,2013-02-13 16:45:00,
2013-02-13 11:47:00,40.2,22.1,29.76,SW,215,2.0,4.0,48,0.00,,---,0.00,VWS V14.00,2013-02-13 16:47:00,
2013-02-13 11:48:00,40.2,22.1,29.76,SSW,205,1.0,4.0,48,0.00,,---,0.00,VWS V14.00,2013-02-13 16:48:00,
2013-02-13 11:49:00,40.2,21.6,29.76,WSW,240,2.0,5.0,47,0.00,,---,0.00,VWS V14.00,2013-02-13 16:49:00,
2013-02-13 11:52:00,40.5,22.4,29.76,WSW,250,1.0,5.0,48,0.00,,---,0.00,VWS V14.00,2013-02-13 16:52:00,
2013-02-13 11:53:00,40.6,22.5,29.76,WSW,250,0.0,5.0,48,0.00,,---,0.00,VWS V14.00,2013-02-13 16:53:00,
2013-02-13 11:54:00,40.6,22.5,29.76,WSW,240,4.0,5.0,48,0.00,,---,0.00,VWS V14.00,2013-02-13 16:54:00,
2013-02-13 11:57:00,40.9,21.2,29.76,South,188,0.0,5.0,45,0.00,,---,0.00,VWS V14.00,2013-02-13 16:57:00,
2013-02-13 11:58:00,40.9,21.2,29.76,South,188,0.0,5.0,45,0.00,,---,0.00,VWS V14.00,2013-02-13 16:58:00,
2013-02-13 11:59:00,41.1,21.4,29.76,South,188,0.0,0.0,45,0.00,,---,0.00,VWS V14.00,2013-02-13 16:59:00,
2013-02-13 12:00:00,41.1,21.4,29.76,South,188,0.0,5.0,45,0.00,,---,0.00,VWS V14.00,2013-02-13 17:00:00,
2013-02-13 12:03:00,41.2,22.0,29.76,NW,323,0.0,3.0,46,0.00,,---,0.00,VWS V14.00,2013-02-13 17:03:00,
2013-02-13 12:04:00,41.1,21.9,29.76,NNW,332,0.0,3.0,46,0.00,,---,0.00,VWS V14.00,2013-02-13 17:04:00,
2013-02-13 12:08:00,40.8,21.6,29.76,West,261,1.0,4.0,46,0.00,,---,0.00,VWS V14.00,2013-02-13 17:08:00,
2013-02-13 12:09:00,40.6,22.0,29.76,SW,229,2.0,4.0,47,0.00,,---,0.00,VWS V14.00,2013-02-13 17:09:00,
2013-02-13 12:10:00,40.6,22.0,29.76,SW,229,1.0,4.0,47,0.00,,---,0.00,VWS V14.00,2013-02-13 17:10:00,
2013-02-13 12:13:00,40.5,21.9,29.76,West,276,0.0,6.0,47,0.00,,---,0.00,VWS V14.00,2013-02-13 17:13:00,
2013-02-13 12:14:00,40.5,21.9,29.75,West,276,1.0,6.0,47,0.00,,---,0.00,VWS V14.00,2013-02-13 17:14:00,
2013-02-13 12:15:00,40.3,21.7,29.75,West,276,2.0,2.0,47,0.00,,---,0.00,VWS V14.00,2013-02-13 17:15:00,
2013-02-13 12:18:00,40.2,21.1,29.75,NNW,330,2.0,4.0,46,0.00,,---,0.00,VWS V14.00,2013-02-13 17:18:00,
2013-02-13 12:19:00,40.1,21.0,29.75,NNW,330,0.0,4.0,46,0.00,,---,0.00,VWS V14.00,2013-02-13 17:19:00,
2013-02-13 12:20:00,40.1,21.5,29.75,NNW,330,1.0,4.0,47,0.00,,---,0.00,VWS V14.00,2013-02-13 17:20:00,
2013-02-13 12:23:00,40.2,21.6,29.75,WSW,255,0.0,4.0,47,0.00,,---,0.00,VWS V14.00,2013-02-13 17:23:00,
2013-02-13 12:24:00,40.3,22.2,29.75,WSW,257,0.0,4.0,48,0.00,,---,0.00,VWS V14.00,2013-02-13 17:24:00,
2013-02-13 12:25:00,40.5,21.9,29.75,WSW,254,3.0,4.0,47,0.00,,---,0.00,VWS V14.00,2013-02-13 17:25:00,
2013-02-13 12:28:00,40.5,21.9,29.75,South,183,0.0,5.0,47,0.00,,---,0.00,VWS V14.00,2013-02-13 17:28:00,
2013-02-13 12:29:00,40.5,21.9,29.75,NNW,335,5.0,5.0,47,0.00,,---,0.00,VWS V14.00,2013-02-13 17:29:00,
2013-02-13 12:30:00,40.5,21.4,29.75,North,354,2.0,5.0,46,0.00,,---,0.00,VWS V14.00,2013-02-13 17:30:00,
2013-02-13 12:33:00,40.3,21.7,29.75,NW,307,4.0,5.0,47,0.00,,---,0.00,VWS V14.00,2013-02-13 17:33:00,
2013-02-13 12:34:00,40.2,21.1,29.75,NNE,16,0.0,5.0,46,0.00,,---,0.00,VWS V14.00,2013-02-13 17:34:00,
2013-02-13 12:35:00,40.2,21.6,29.75,North,0,2.0,5.0,47,0.00,,---,0.00,VWS V14.00,2013-02-13 17:35:00,
2013-02-13 12:38:00,40.2,22.1,29.75,North,0,1.0,5.0,48,0.00,,---,0.00,VWS V14.00,2013-02-13 17:38:00,
2013-02-13 12:39:00,40.3,21.7,29.75,North,0,0.0,5.0,47,0.00,,---,0.00,VWS V14.00,2013-02-13 17:39:00,
2013-02-13 12:41:00,40.5,21.9,29.75,North,0,0.0,5.0,47,0.00,,---,0.00,VWS V14.00,2013-02-13 17:41:00,
2013-02-13 12:43:00,40.8,22.1,29.75,West,268,0.0,5.0,47,0.00,,---,0.00,VWS V14.00,2013-02-13 17:43:00,
2013-02-13 12:44:00,40.8,21.6,29.75,SW,220,3.0,5.0,46,0.00,,---,0.00,VWS V14.00,2013-02-13 17:44:00,
2013-02-13 12:45:00,40.9,21.7,29.75,West,272,5.0,8.0,46,0.00,,---,0.00,VWS V14.00,2013-02-13 17:45:00,
2013-02-13 12:46:00,41.1,21.9,29.75,West,269,1.0,8.0,46,0.00,,---,0.00,VWS V14.00,2013-02-13 17:46:00,
2013-02-13 12:48:00,41.1,22.4,29.75,NNW,338,2.0,10.0,47,0.00,,---,0.00,VWS V14.00,2013-02-13 17:48:00,
2013-02-13 12:49:00,40.9,21.2,29.75,NNW,337,1.0,10.0,45,0.00,,---,0.00,VWS V14.00,2013-02-13 17:49:00,
2013-02-13 12:50:00,40.9,21.2,29.75,NNW,337,1.0,10.0,45,0.00,,---,0.00,VWS V14.00,2013-02-13 17:50:00,
2013-02-13 12:51:00,40.9,22.2,29.75,NNW,337,1.0,10.0,47,0.00,,---,0.00,VWS V14.00,2013-02-13 17:51:00,
2013-02-13 12:53:00,40.8,22.1,29.75,NNW,342,2.0,10.0,47,0.00,,---,0.00,VWS V14.00,2013-02-13 17:53:00,
2013-02-13 12:54:00,40.6,22.0,29.75,NNW,342,0.0,10.0,47,0.00,,---,0.00,VWS V14.00,2013-02-13 17:54:00,
2013-02-13 12:55:00,40.6,21.5,29.75,North,349,2.0,10.0,46,0.00,,---,0.00,VWS V14.00,2013-02-13 17:55:00,
2013-02-13 12:56:00,40.5,21.9,29.75,North,349,0.0,10.0,47,0.00,,---,0.00,VWS V14.00,2013-02-13 17:56:00,
2013-02-13 12:58:00,40.5,21.9,29.74,North,349,3.0,10.0,47,0.00,,---,0.00,VWS V14.00,2013-02-13 17:58:00,
2013-02-13 12:59:00,40.5,21.9,29.74,North,349,1.0,10.0,47,0.00,,---,0.00,VWS V14.00,2013-02-13 17:59:00,
2013-02-13 13:00:00,40.5,21.9,29.74,North,359,3.0,4.0,47,0.00,,---,0.00,VWS V14.00,2013-02-13 18:00:00,
2013-02-13 13:01:00,40.5,21.9,29.74,NNW,338,2.0,4.0,47,0.00,,---,0.00,VWS V14.00,2013-02-13 18:01:00,
2013-02-13 13:03:00,40.3,21.7,29.74,WNW,290,0.0,4.0,47,0.00,,---,0.00,VWS V14.00,2013-02-13 18:03:00,
2013-02-13 13:04:00,40.5,21.9,29.74,WNW,290,0.0,4.0,47,0.00,,---,0.00,VWS V14.00,2013-02-13 18:04:00,
2013-02-13 13:05:00,40.5,22.9,29.74,West,264,3.0,4.0,49,0.00,,---,0.00,VWS V14.00,2013-02-13 18:05:00,
2013-02-13 13:06:00,40.5,21.9,29.74,WSW,245,2.0,6.0,47,0.00,,---,0.00,VWS V14.00,2013-02-13 18:06:00,
2013-02-13 13:08:00,40.5,21.4,29.74,SW,226,4.0,6.0,46,0.00,,---,0.00,VWS V14.00,2013-02-13 18:08:00,
2013-02-13 13:09:00,40.3,21.2,29.74,SSW,196,3.0,6.0,46,0.00,,---,0.00,VWS V14.00,2013-02-13 18:09:00,
2013-02-13 13:10:00,40.3,21.2,29.74,WNW,287,2.0,6.0,46,0.00,,---,0.00,VWS V14.00,2013-02-13 18:10:00,
2013-02-13 13:11:00,40.3,21.7,29.74,WNW,287,0.0,6.0,47,0.00,,---,0.00,VWS V14.00,2013-02-13 18:11:00,
2013-02-13 13:13:00,40.3,21.2,29.74,NW,307,3.0,6.0,46,0.00,,---,0.00,VWS V14.00,2013-02-13 18:13:00,
2013-02-13 13:14:00,40.3,21.2,29.74,NW,325,2.0,2.0,46,0.00,,---,0.00,VWS V14.00,2013-02-13 18:14:00,
2013-02-13 13:15:00,40.5,21.4,29.74,WSW,257,1.0,2.0,46,0.00,,---,0.00,VWS V14.00,2013-02-13 18:15:00,
2013-02-13 13:16:00,40.6,22.0,29.74,WSW,247,0.0,3.0,47,0.00,,---,0.00,VWS V14.00,2013-02-13 18:16:00,
2013-02-13 13:18:00,41.1,21.9,29.74,SE,139,5.0,7.0,46,0.00,,---,0.00,VWS V14.00,2013-02-13 18:18:00,
2013-02-13 13:19:00,41.2,22.0,29.74,South,178,2.0,7.0,46,0.00,,---,0.00,VWS V14.00,2013-02-13 18:19:00,
2013-02-13 13:20:00,41.3,22.1,29.74,SSW,194,5.0,7.0,46,0.00,,---,0.00,VWS V14.00,2013-02-13 18:20:00,
2013-02-13 13:21:00,41.5,21.2,29.74,South,191,0.0,7.0,44,0.00,,---,0.00,VWS V14.00,2013-02-13 18:21:00,
2013-02-13 13:23:00,41.8,21.5,29.74,WSW,258,6.0,10.0,44,0.00,,---,0.00,VWS V14.00,2013-02-13 18:23:00,
2013-02-13 13:24:00,41.9,22.1,29.74,West,278,5.0,10.0,45,0.00,,---,0.00,VWS V14.00,2013-02-13 18:24:00,
2013-02-13 13:25:00,41.9,21.6,29.74,West,277,1.0,10.0,44,0.00,,---,0.00,VWS V14.00,2013-02-13 18:25:00,
2013-02-13 13:26:00,42.1,22.3,29.74,North,6,0.0,10.0,45,0.00,,---,0.00,VWS V14.00,2013-02-13 18:26:00,
2013-02-13 13:28:00,42.2,21.9,29.73,SSW,194,1.0,10.0,44,0.00,,---,0.00,VWS V14.00,2013-02-13 18:28:00,
2013-02-13 13:29:00,42.2,22.9,29.73,SSW,205,1.0,3.0,46,0.00,,---,0.00,VWS V14.00,2013-02-13 18:29:00,
2013-02-13 13:30:00,42.1,21.8,29.73,WSW,253,1.0,4.0,44,0.00,,---,0.00,VWS V14.00,2013-02-13 18:30:00,
2013-02-13 13:32:00,42.1,22.3,29.73,WSW,238,1.0,5.0,45,0.00,,---,0.00,VWS V14.00,2013-02-13 18:32:00,
2013-02-13 13:33:00,41.9,22.1,29.73,SW,226,2.0,5.0,45,0.00,,---,0.00,VWS V14.00,2013-02-13 18:33:00,
2013-02-13 13:34:00,41.9,22.1,29.73,South,183,2.0,5.0,45,0.00,,---,0.00,VWS V14.00,2013-02-13 18:34:00,
2013-02-13 13:35:00,41.9,22.1,29.73,South,188,3.0,5.0,45,0.00,,---,0.00,VWS V14.00,2013-02-13 18:35:00,
2013-02-13 13:37:00,41.9,22.1,29.73,SSW,198,5.0,5.0,45,0.00,,---,0.00,VWS V14.00,2013-02-13 18:37:00,
2013-02-13 13:38:00,42.1,21.8,29.73,WSW,246,1.0,11.0,44,0.00,,---,0.00,VWS V14.00,2013-02-13 18:38:00,
2013-02-13 13:40:00,42.1,22.3,29.73,SW,236,5.0,11.0,45,0.00,,---,0.00,VWS V14.00,2013-02-13 18:40:00,
2013-02-13 13:42:00,41.9,21.6,29.73,WSW,248,3.0,11.0,44,0.00,,---,0.00,VWS V14.00,2013-02-13 18:42:00,
2013-02-13 13:44:00,41.8,21.5,29.73,SW,219,2.0,11.0,44,0.00,,---,0.00,VWS V14.00,2013-02-13 18:44:00,
2013-02-13 13:45:00,41.8,22.0,29.73,SSW,212,1.0,2.0,45,0.00,,---,0.00,VWS V14.00,2013-02-13 18:45:00,
2013-02-13 13:47:00,41.8,22.0,29.73,SW,227,1.0,4.0,45,0.00,,---,0.00,VWS V14.00,2013-02-13 18:47:00,
2013-02-13 13:49:00,41.9,21.6,29.73,WSW,244,5.0,5.0,44,0.00,,---,0.00,VWS V14.00,2013-02-13 18:49:00,
2013-02-13 13:50:00,41.9,21.0,29.73,SW,221,2.0,9.0,43,0.00,,---,0.00,VWS V14.00,2013-02-13 18:50:00,
2013-02-13 13:52:00,41.9,21.6,29.73,WSW,254,7.0,9.0,44,0.00,,---,0.00,VWS V14.00,2013-02-13 18:52:00,
2013-02-13 13:54:00,41.9,22.1,29.73,WSW,240,2.0,9.0,45,0.00,,---,0.00,VWS V14.00,2013-02-13 18:54:00,
2013-02-13 13:55:00,42.1,22.3,29.73,SSW,200,2.0,9.0,45,0.00,,---,0.00,VWS V14.00,2013-02-13 18:55:00,
2013-02-13 13:57:00,42.1,21.8,29.73,SW,236,2.0,11.0,44,0.00,,---,0.00,VWS V14.00,2013-02-13 18:57:00,
2013-02-13 13:59:00,42.1,21.8,29.73,WSW,245,3.0,11.0,44,0.00,,---,0.00,VWS V14.00,2013-02-13 18:59:00,
2013-02-13 14:00:00,42.1,21.8,29.73,SSW,200,3.0,7.0,44,0.00,,---,0.00,VWS V14.00,2013-02-13 19:00:00,
2013-02-13 14:02:00,41.8,22.0,29.73,West,281,6.0,7.0,45,0.00,,---,0.00,VWS V14.00,2013-02-13 19:02:00,
2013-02-13 14:04:00,41.6,21.9,29.73,SW,216,4.0,10.0,45,0.00,,---,0.00,VWS V14.00,2013-02-13 19:04:00,
2013-02-13 14:05:00,41.3,21.6,29.73,West,271,2.0,10.0,45,0.00,,---,0.00,VWS V14.00,2013-02-13 19:05:00,
2013-02-13 14:07:00,41.3,21.6,29.73,West,266,1.0,10.0,45,0.00,,---,0.00,VWS V14.00,2013-02-13 19:07:00,
2013-02-13 14:09:00,41.3,21.6,29.73,West,265,2.0,10.0,45,0.00,,---,0.00,VWS V14.00,2013-02-13 19:09:00,
2013-02-13 14:10:00,41.5,21.2,29.73,SSW,211,5.0,10.0,44,0.00,,---,0.00,VWS V14.00,2013-02-13 19:10:00,
2013-02-13 14:12:00,41.3,21.6,29.73,SW,225,1.0,10.0,45,0.00,,---,0.00,VWS V14.00,2013-02-13 19:12:00,
2013-02-13 14:14:00,41.3,21.6,29.73,SW,221,1.0,10.0,45,0.00,,---,0.00,VWS V14.00,2013-02-13 19:14:00,
2013-02-13 14:15:00,41.2,22.0,29.73,WSW,243,0.0,4.0,46,0.00,,---,0.00,VWS V14.00,2013-02-13 19:15:00,
2013-02-13 14:16:00,41.2,22.0,29.73,WSW,243,1.0,4.0,46,0.00,,---,0.00,VWS V14.00,2013-02-13 19:16:00,
2013-02-13 14:17:00,41.1,21.4,29.73,SSW,203,0.0,4.0,45,0.00,,---,0.00,VWS V14.00,2013-02-13 19:17:00,
2013-02-13 14:19:00,41.1,21.4,29.73,SSW,212,3.0,4.0,45,0.00,,---,0.00,VWS V14.00,2013-02-13 19:19:00,
2013-02-13 14:21:00,41.2,21.5,29.73,NNW,327,0.0,4.0,45,0.00,,---,0.00,VWS V14.00,2013-02-13 19:21:00,
2013-02-13 14:22:00,41.2,21.0,29.73,West,264,2.0,6.0,44,0.00,,---,0.00,VWS V14.00,2013-02-13 19:22:00,
2013-02-13 14:24:00,41.3,21.0,29.73,North,356,0.0,6.0,44,0.00,,---,0.00,VWS V14.00,2013-02-13 19:24:00,
2013-02-13 14:26:00,41.2,21.0,29.73,West,279,0.0,6.0,44,0.00,,---,0.00,VWS V14.00,2013-02-13 19:26:00,
2013-02-13 14:27:00,41.2,21.5,29.73,West,263,3.0,6.0,45,0.00,,---,0.00,VWS V14.00,2013-02-13 19:27:00,
2013-02-13 14:29:00,41.2,21.5,29.72,North,352,1.0,3.0,45,0.00,,---,0.00,VWS V14.00,2013-02-13 19:29:00,
2013-02-13 14:30:00,41.2,21.5,29.72,North,352,3.0,6.0,45,0.00,,---,0.00,VWS V14.00,2013-02-13 19:30:00,
2013-02-13 14:31:00,41.1,21.4,29.72,North,352,0.0,3.0,45,0.00,,---,0.00,VWS V14.00,2013-02-13 19:31:00,
2013-02-13 14:32:00,40.9,21.2,29.72,NNW,344,0.0,3.0,45,0.00,,---,0.00,VWS V14.00,2013-02-13 19:32:00,
2013-02-13 14:34:00,40.9,21.2,29.72,West,269,1.0,5.0,45,0.00,,---,0.00,VWS V14.00,2013-02-13 19:34:00,
2013-02-13 14:36:00,40.9,21.2,29.72,West,276,2.0,6.0,45,0.00,,---,0.00,VWS V14.00,2013-02-13 19:36:00,
2013-02-13 14:38:00,40.8,21.1,29.72,West,274,0.0,6.0,45,0.00,,---,0.00,VWS V14.00,2013-02-13 19:38:00,
2013-02-13 14:39:00,40.8,21.6,29.72,West,274,1.0,6.0,46,0.00,,---,0.00,VWS V14.00,2013-02-13 19:39:00,
2013-02-13 14:41:00,40.6,21.5,29.72,WSW,252,0.0,6.0,46,0.00,,---,0.00,VWS V14.00,2013-02-13 19:41:00,
2013-02-13 14:43:00,40.6,21.5,29.72,WSW,252,0.0,6.0,46,0.00,,---,0.00,VWS V14.00,2013-02-13 19:43:00,
2013-02-13 14:44:00,40.8,21.6,29.72,WSW,252,3.0,3.0,46,0.00,,---,0.00,VWS V14.00,2013-02-13 19:44:00,
2013-02-13 14:45:00,40.8,21.6,29.72,WSW,251,0.0,6.0,46,0.00,,---,0.00,VWS V14.00,2013-02-13 19:45:00,
2013-02-13 14:46:00,40.8,21.1,29.72,North,0,0.0,3.0,45,0.00,,---,0.00,VWS V14.00,2013-02-13 19:46:00,
2013-02-13 14:48:00,40.9,22.2,29.72,WNW,294,0.0,3.0,47,0.00,,---,0.00,VWS V14.00,2013-02-13 19:48:00,
2013-02-13 14:49:00,41.1,20.9,29.72,SSW,212,3.0,5.0,44,0.00,,---,0.00,VWS V14.00,2013-02-13 19:49:00,
2013-02-13 14:51:00,41.2,21.5,29.72,SW,214,1.0,5.0,45,0.00,,---,0.00,VWS V14.00,2013-02-13 19:51:00,
2013-02-13 14:52:00,41.2,21.0,29.72,WSW,256,4.0,5.0,44,0.00,,---,0.00,VWS V14.00,2013-02-13 19:52:00,
2013-02-13 14:53:00,41.3,21.0,29.72,SSW,196,3.0,5.0,44,0.00,,---,0.00,VWS V14.00,2013-02-13 19:53:00,
2013-02-13 14:54:00,41.5,21.8,29.72,SSW,195,0.0,5.0,45,0.00,,---,0.00,VWS V14.00,2013-02-13 19:54:00,
2013-02-13 14:56:00,41.6,21.3,29.72,SW,223,3.0,7.0,44,0.00,,---,0.00,VWS V14.00,2013-02-13 19:56:00,
2013-02-13 14:57:00,41.6,21.3,29.72,SW,214,0.0,7.0,44,0.00,,---,0.00,VWS V14.00,2013-02-13 19:57:00,
2013-02-13 14:58:00,41.8,21.5,29.72,SSW,207,4.0,7.0,44,0.00,,---,0.00,VWS V14.00,2013-02-13 19:58:00,
2013-02-13 14:59:00,41.8,21.5,29.71,SW,236,0.0,1.0,44,0.00,,---,0.00,VWS V14.00,2013-02-13 19:59:00,
2013-02-13 15:00:00,41.8,21.5,29.71,SW,236,0.0,7.0,44,0.00,,---,0.00,VWS V14.00,2013-02-13 20:00:00,
2013-02-13 15:01:00,41.8,21.5,29.71,NW,323,2.0,3.0,44,0.00,,---,0.00,VWS V14.00,2013-02-13 20:01:00,
2013-02-13 15:02:00,41.8,21.5,29.71,SW,219,1.0,4.0,44,0.00,,---,0.00,VWS V14.00,2013-02-13 20:02:00,
2013-02-13 15:03:00,41.8,22.0,29.71,WSW,257,0.0,4.0,45,0.00,,---,0.00,VWS V14.00,2013-02-13 20:03:00,
2013-02-13 15:05:00,41.9,21.6,29.71,NNW,335,5.0,7.0,44,0.00,,---,0.00,VWS V14.00,2013-02-13 20:05:00,
2013-02-13 15:07:00,41.8,21.0,29.71,NW,326,1.0,7.0,43,0.00,,---,0.00,VWS V14.00,2013-02-13 20:07:00,
2013-02-13 15:08:00,41.6,20.8,29.71,NNW,341,0.0,7.0,43,0.00,,---,0.00,VWS V14.00,2013-02-13 20:08:00,
2013-02-13 15:10:00,41.8,21.5,29.71,NNW,341,0.0,7.0,44,0.00,,---,0.00,VWS V14.00,2013-02-13 20:10:00,
2013-02-13 15:12:00,41.8,21.0,29.71,North,359,1.0,7.0,43,0.00,,---,0.00,VWS V14.00,2013-02-13 20:12:00,
2013-02-13 15:13:00,41.9,21.6,29.71,North,359,0.0,7.0,44,0.00,,---,0.00,VWS V14.00,2013-02-13 20:13:00,
2013-02-13 15:15:00,42.1,21.8,29.70,NNW,335,1.0,6.0,44,0.00,,---,0.00,VWS V14.00,2013-02-13 20:15:00,
2013-02-13 15:17:00,42.1,20.7,29.70,NNW,335,2.0,6.0,42,0.00,,---,0.00,VWS V14.00,2013-02-13 20:17:00,
2013-02-13 15:18:00,42.1,21.2,29.70,West,273,5.0,6.0,43,0.00,,---,0.00,VWS V14.00,2013-02-13 20:18:00,
2013-02-13 15:20:00,42.1,21.2,29.70,West,272,1.0,6.0,43,0.00,,---,0.00,VWS V14.00,2013-02-13 20:20:00,
2013-02-13 15:22:00,42.1,20.7,29.70,SW,231,1.0,6.0,42,0.00,,---,0.00,VWS V14.00,2013-02-13 20:22:00,
2013-02-13 15:23:00,42.2,21.3,29.70,SW,231,1.0,6.0,43,0.00,,---,0.00,VWS V14.00,2013-02-13 20:23:00,
2013-02-13 15:25:00,42.2,21.3,29.70,WNW,290,0.0,6.0,43,0.00,,---,0.00,VWS V14.00,2013-02-13 20:25:00,
2013-02-13 15:27:00,42.3,21.4,29.70,WNW,282,2.0,6.0,43,0.00,,---,0.00,VWS V14.00,2013-02-13 20:27:00,
2013-02-13 15:28:00,42.3,20.9,29.70,WNW,288,0.0,6.0,42,0.00,,---,0.00,VWS V14.00,2013-02-13 20:28:00,
2013-02-13 15:30:00,42.2,20.8,29.70,WNW,288,2.0,2.0,42,0.00,,---,0.00,VWS V14.00,2013-02-13 20:30:00,
2013-02-13 15:32:00,42.2,20.8,29.70,WNW,288,2.0,2.0,42,0.00,,---,0.00,VWS V14.00,2013-02-13 20:32:00,
2013-02-13 15:33:00,42.1,20.7,29.70,WNW,288,0.0,2.0,42,0.00,,---,0.00,VWS V14.00,2013-02-13 20:33:00,
2013-02-13 15:36:00,42.2,21.3,29.70,WSW,239,0.0,3.0,43,0.00,,---,0.00,VWS V14.00,2013-02-13 20:36:00,
2013-02-13 15:37:00,42.3,22.0,29.70,WSW,239,0.0,3.0,44,0.00,,---,0.00,VWS V14.00,2013-02-13 20:37:00,
2013-02-13 15:38:00,42.3,20.9,29.70,West,259,5.0,5.0,42,0.00,,---,0.00,VWS V14.00,2013-02-13 20:38:00,
2013-02-13 15:41:00,42.3,20.9,29.70,SSW,205,1.0,5.0,42,0.00,,---,0.00,VWS V14.00,2013-02-13 20:41:00,
2013-02-13 15:42:00,42.3,21.4,29.70,WSW,243,3.0,5.0,43,0.00,,---,0.00,VWS V14.00,2013-02-13 20:42:00,
2013-02-13 15:43:00,42.2,20.8,29.69,West,281,1.0,5.0,42,0.00,,---,0.00,VWS V14.00,2013-02-13 20:43:00,
2013-02-13 15:45:00,42.2,20.8,29.69,West,281,0.0,5.0,42,0.00,,---,0.00,VWS V14.00,2013-02-13 20:45:00,
2013-02-13 15:46:00,42.3,21.4,29.69,SSW,199,2.0,2.0,43,0.00,,---,0.00,VWS V14.00,2013-02-13 20:46:00,
2013-02-13 15:47:00,42.3,22.0,29.69,SSW,199,0.0,2.0,44,0.00,,---,0.00,VWS V14.00,2013-02-13 20:47:00,
2013-02-13 15:48:00,42.3,21.4,29.69,SSW,201,2.0,5.0,43,0.00,,---,0.00,VWS V14.00,2013-02-13 20:48:00,
2013-02-13 15:51:00,42.3,20.9,29.69,SSW,197,1.0,5.0,42,0.00,,---,0.00,VWS V14.00,2013-02-13 20:51:00,
2013-02-13 15:52:00,42.2,20.8,29.69,SW,233,5.0,6.0,42,0.00,,---,0.00,VWS V14.00,2013-02-13 20:52:00,
2013-02-13 15:53:00,42.2,21.3,29.69,SW,228,2.0,6.0,43,0.00,,---,0.00,VWS V14.00,2013-02-13 20:53:00,
2013-02-13 15:56:00,42.2,20.8,29.69,WSW,237,1.0,6.0,42,0.00,,---,0.00,VWS V14.00,2013-02-13 20:56:00,
2013-02-13 15:57:00,42.2,20.8,29.69,WSW,237,2.0,6.0,42,0.00,,---,0.00,VWS V14.00,2013-02-13 20:57:00,
2013-02-13 15:58:00,42.1,20.7,29.69,WSW,257,1.0,6.0,42,0.00,,---,0.00,VWS V14.00,2013-02-13 20:58:00,
2013-02-13 15:59:00,42.1,20.7,29.68,West,260,5.0,6.0,42,0.00,,---,0.00,VWS V14.00,2013-02-13 20:59:00,
2013-02-13 16:00:00,42.1,20.1,29.68,SW,217,3.0,6.0,41,0.00,,---,0.00,VWS V14.00,2013-02-13 21:00:00,
2013-02-13 16:01:00,41.9,21.0,29.68,SW,217,1.0,1.0,43,0.00,,---,0.00,VWS V14.00,2013-02-13 21:01:00,
2013-02-13 16:02:00,41.9,21.0,29.68,SW,218,0.0,1.0,43,0.00,,---,0.00,VWS V14.00,2013-02-13 21:02:00,
2013-02-13 16:03:00,41.9,21.0,29.68,WSW,242,1.0,2.0,43,0.00,,---,0.00,VWS V14.00,2013-02-13 21:03:00,
2013-02-13 16:04:00,41.9,20.5,29.68,WSW,242,2.0,2.0,42,0.00,,---,0.00,VWS V14.00,2013-02-13 21:04:00,
2013-02-13 16:06:00,41.8,21.0,29.68,WSW,243,0.0,3.0,43,0.00,,---,0.00,VWS V14.00,2013-02-13 21:06:00,
2013-02-13 16:07:00,41.8,23.1,29.68,WSW,242,2.0,5.0,47,0.00,,---,0.00,VWS V14.00,2013-02-13 21:07:00,
2013-02-13 16:08:00,41.8,21.0,29.68,WSW,242,3.0,5.0,43,0.00,,---,0.00,VWS V14.00,2013-02-13 21:08:00,
2013-02-13 16:09:00,41.6,20.8,29.68,SSW,200,3.0,5.0,43,0.00,,---,0.00,VWS V14.00,2013-02-13 21:09:00,
2013-02-13 16:11:00,41.6,20.8,29.68,SSW,204,0.0,5.0,43,0.00,,---,0.00,VWS V14.00,2013-02-13 21:11:00,
2013-02-13 16:13:00,41.5,21.2,29.68,SSW,205,2.0,5.0,44,0.00,,---,0.00,VWS V14.00,2013-02-13 21:13:00,
2013-02-13 16:14:00,41.5,21.2,29.70,SSW,205,0.0,5.0,44,0.00,,---,0.00,VWS V14.00,2013-02-13 21:14:00,
2013-02-13 16:15:00,41.5,21.2,29.70,SSW,205,0.0,5.0,44,0.00,,---,0.00,VWS V14.00,2013-02-13 21:15:00,
2013-02-13 16:16:00,41.5,20.7,29.70,SSW,212,1.0,3.0,43,0.00,,---,0.00,VWS V14.00,2013-02-13 21:16:00,
2013-02-13 16:18:00,41.3,21.0,29.70,SSW,213,2.0,3.0,44,0.00,,---,0.00,VWS V14.00,2013-02-13 21:18:00,
2013-02-13 16:19:00,41.3,20.5,29.70,SSW,213,0.0,3.0,43,0.00,,---,0.00,VWS V14.00,2013-02-13 21:19:00,
2013-02-13 16:21:00,41.3,20.5,29.70,SSW,213,0.0,3.0,43,0.00,,---,0.00,VWS V14.00,2013-02-13 21:21:00,
2013-02-13 16:23:00,41.3,21.0,29.70,SSW,213,0.0,3.0,44,0.00,,---,0.00,VWS V14.00,2013-02-13 21:23:00,
2013-02-13 16:24:00,41.3,21.0,29.70,SSW,213,0.0,3.0,44,0.00,,---,0.00,VWS V14.00,2013-02-13 21:24:00,
2013-02-13 16:26:00,41.3,20.5,29.70,SSW,213,2.0,3.0,43,0.00,,---,0.00,VWS V14.00,2013-02-13 21:26:00,
2013-02-13 16:28:00,41.2,20.4,29.70,SSW,213,0.0,3.0,43,0.00,,---,0.00,VWS V14.00,2013-02-13 21:28:00,
2013-02-13 16:29:00,41.2,21.0,29.69,SSW,213,0.0,3.0,44,0.00,,---,0.00,VWS V14.00,2013-02-13 21:29:00,
2013-02-13 16:30:00,37.5,20.6,29.69,West,276,0.0,0.0,50,0.00,,---,0.00,VWS V14.00,2013-02-13 21:30:00,
2013-02-13 16:31:00,41.2,20.4,29.69,SW,214,0.0,1.0,43,0.00,,---,0.00,VWS V14.00,2013-02-13 21:31:00,
2013-02-13 16:33:00,41.1,20.9,29.69,SSW,213,0.0,1.0,44,0.00,,---,0.00,VWS V14.00,2013-02-13 21:33:00,
2013-02-13 16:34:00,41.1,20.9,29.69,SW,218,2.0,3.0,44,0.00,,---,0.00,VWS V14.00,2013-02-13 21:34:00,
2013-02-13 16:36:00,41.1,20.9,29.69,SSW,212,0.0,3.0,44,0.00,,---,0.00,VWS V14.00,2013-02-13 21:36:00,
2013-02-13 16:38:00,40.9,20.7,29.69,West,276,0.0,3.0,44,0.00,,---,0.00,VWS V14.00,2013-02-13 21:38:00,
2013-02-13 16:39:00,40.9,20.7,29.69,West,276,2.0,3.0,44,0.00,,---,0.00,VWS V14.00,2013-02-13 21:39:00,
2013-02-13 16:41:00,40.8,20.6,29.69,West,276,0.0,3.0,44,0.00,,---,0.00,VWS V14.00,2013-02-13 21:41:00,
2013-02-13 16:43:00,40.8,21.1,29.69,West,276,0.0,3.0,45,0.00,,---,0.00,VWS V14.00,2013-02-13 21:43:00,
2013-02-13 16:44:00,40.6,20.9,29.69,West,276,0.0,3.0,45,0.00,,---,0.00,VWS V14.00,2013-02-13 21:44:00,
2013-02-13 16:45:00,40.6,20.9,29.69,West,276,0.0,3.0,45,0.00,,---,0.00,VWS V14.00,2013-02-13 21:45:00,
2013-02-13 16:46:00,40.6,20.9,29.69,West,276,0.0,1.0,45,0.00,,---,0.00,VWS V14.00,2013-02-13 21:46:00,
2013-02-13 16:48:00,40.5,20.9,29.69,West,276,0.0,1.0,45,0.00,,---,0.00,VWS V14.00,2013-02-13 21:48:00,
2013-02-13 16:49:00,40.5,20.9,29.69,West,276,0.0,1.0,45,0.00,,---,0.00,VWS V14.00,2013-02-13 21:49:00,
2013-02-13 16:51:00,40.3,21.2,29.69,West,276,0.0,1.0,46,0.00,,---,0.00,VWS V14.00,2013-02-13 21:51:00,
2013-02-13 16:53:00,40.2,21.1,29.69,West,276,0.0,1.0,46,0.00,,---,0.00,VWS V14.00,2013-02-13 21:53:00,
2013-02-13 16:54:00,40.1,21.5,29.69,West,276,0.0,1.0,47,0.00,,---,0.00,VWS V14.00,2013-02-13 21:54:00,
2013-02-13 16:56:00,39.9,21.3,29.69,West,276,0.0,3.0,47,0.00,,---,0.00,VWS V14.00,2013-02-13 21:56:00,
2013-02-13 16:58:00,39.9,21.3,29.70,West,276,0.0,3.0,47,0.00,,---,0.00,VWS V14.00,2013-02-13 21:58:00,
2013-02-13 16:59:00,39.8,21.2,29.70,West,276,0.0,0.0,47,0.00,,---,0.00,VWS V14.00,2013-02-13 21:59:00,
2013-02-13 17:00:00,34.6,20.5,29.69,West,276,0.0,0.0,56,0.00,,---,0.00,VWS V14.00,2013-02-13 22:00:00,
2013-02-13 17:01:00,39.6,21.0,29.70,West,276,0.0,1.0,47,0.00,,---,0.00,VWS V14.00,2013-02-13 22:01:00,
2013-02-13 17:03:00,39.5,21.0,29.70,West,276,0.0,1.0,47,0.00,,---,0.00,VWS V14.00,2013-02-13 22:03:00,
2013-02-13 17:04:00,39.5,21.0,29.70,West,276,0.0,1.0,47,0.00,,---,0.00,VWS V14.00,2013-02-13 22:04:00,
2013-02-13 17:05:00,39.5,21.0,29.70,West,276,0.0,1.0,47,0.00,,---,0.00,VWS V14.00,2013-02-13 22:05:00,
2013-02-13 17:06:00,39.3,20.8,29.70,West,276,0.0,1.0,47,0.00,,---,0.00,VWS V14.00,2013-02-13 22:06:00,
2013-02-13 17:08:00,39.2,21.2,29.70,West,276,0.0,1.0,48,0.00,,---,0.00,VWS V14.00,2013-02-13 22:08:00,
2013-02-13 17:10:00,39.2,21.2,29.70,West,276,0.0,1.0,48,0.00,,---,0.00,VWS V14.00,2013-02-13 22:10:00,
2013-02-13 17:11:00,39.1,21.6,29.70,West,276,0.0,1.0,49,0.00,,---,0.00,VWS V14.00,2013-02-13 22:11:00,
2013-02-13 17:13:00,38.9,20.9,29.70,West,276,0.0,1.0,48,0.00,,---,0.00,VWS V14.00,2013-02-13 22:13:00,
2013-02-13 17:15:00,38.9,21.4,29.70,West,276,0.0,0.0,49,0.00,,---,0.00,VWS V14.00,2013-02-13 22:15:00,
2013-02-13 17:16:00,38.8,21.3,29.70,West,276,0.0,0.0,49,0.00,,---,0.00,VWS V14.00,2013-02-13 22:16:00,
2013-02-13 17:18:00,38.6,21.1,29.70,West,276,0.0,0.0,49,0.00,,---,0.00,VWS V14.00,2013-02-13 22:18:00,
2013-02-13 17:20:00,38.6,21.1,29.70,West,276,0.0,0.0,49,0.00,,---,0.00,VWS V14.00,2013-02-13 22:20:00,
2013-02-13 17:21:00,38.3,20.8,29.70,West,276,0.0,0.0,49,0.00,,---,0.00,VWS V14.00,2013-02-13 22:21:00,
2013-02-13 17:24:00,38.2,21.2,29.70,West,276,0.0,0.0,50,0.00,,---,0.00,VWS V14.00,2013-02-13 22:24:00,
2013-02-13 17:25:00,38.0,21.0,29.70,West,276,0.0,0.0,50,0.00,,---,0.00,VWS V14.00,2013-02-13 22:25:00,
2013-02-13 17:26:00,37.8,20.8,29.70,West,276,0.0,0.0,50,0.00,,---,0.00,VWS V14.00,2013-02-13 22:26:00,
2013-02-13 17:29:00,37.6,20.7,29.69,West,276,0.0,0.0,50,0.00,,---,0.00,VWS V14.00,2013-02-13 22:29:00,
2013-02-13 17:30:00,37.5,20.6,29.69,West,276,0.0,0.0,50,0.00,,---,0.00,VWS V14.00,2013-02-13 22:30:00,
2013-02-13 17:31:00,37.3,20.4,29.69,West,276,0.0,0.0,50,0.00,,---,0.00,VWS V14.00,2013-02-13 22:31:00,
2013-02-13 17:34:00,37.0,21.0,29.69,West,276,0.0,0.0,52,0.00,,---,0.00,VWS V14.00,2013-02-13 22:34:00,
2013-02-13 17:35:00,36.9,20.9,29.69,West,276,0.0,0.0,52,0.00,,---,0.00,VWS V14.00,2013-02-13 22:35:00,
2013-02-13 17:36:00,36.9,21.4,29.69,West,276,0.0,0.0,53,0.00,,---,0.00,VWS V14.00,2013-02-13 22:36:00,
2013-02-13 17:39:00,36.6,21.1,29.69,West,276,0.0,0.0,53,0.00,,---,0.00,VWS V14.00,2013-02-13 22:39:00,
2013-02-13 17:40:00,36.5,21.0,29.69,West,276,0.0,0.0,53,0.00,,---,0.00,VWS V14.00,2013-02-13 22:40:00,
2013-02-13 17:41:00,36.3,20.8,29.69,West,276,0.0,0.0,53,0.00,,---,0.00,VWS V14.00,2013-02-13 22:41:00,
2013-02-13 17:44:00,36.0,21.0,29.69,West,276,0.0,0.0,54,0.00,,---,0.00,VWS V14.00,2013-02-13 22:44:00,
2013-02-13 17:45:00,35.9,20.9,29.69,West,276,0.0,0.0,54,0.00,,---,0.00,VWS V14.00,2013-02-13 22:45:00,
2013-02-13 17:46:00,35.8,20.8,29.69,West,276,0.0,0.0,54,0.00,,---,0.00,VWS V14.00,2013-02-13 22:46:00,
2013-02-13 17:49:00,35.5,21.0,29.69,West,276,0.0,0.0,55,0.00,,---,0.00,VWS V14.00,2013-02-13 22:49:00,
2013-02-13 17:50:00,35.5,21.0,29.69,West,276,0.0,0.0,55,0.00,,---,0.00,VWS V14.00,2013-02-13 22:50:00,
2013-02-13 17:51:00,35.3,20.8,29.69,West,276,0.0,0.0,55,0.00,,---,0.00,VWS V14.00,2013-02-13 22:51:00,
2013-02-13 17:52:00,35.2,20.7,29.69,West,276,0.0,0.0,55,0.00,,---,0.00,VWS V14.00,2013-02-13 22:52:00,
2013-02-13 17:55:00,35.0,20.5,29.69,West,276,0.0,0.0,55,0.00,,---,0.00,VWS V14.00,2013-02-13 22:55:00,
2013-02-13 17:56:00,34.9,20.4,29.69,West,276,0.0,0.0,55,0.00,,---,0.00,VWS V14.00,2013-02-13 22:56:00,
2013-02-13 17:57:00,34.9,20.4,29.69,West,276,0.0,0.0,55,0.00,,---,0.00,VWS V14.00,2013-02-13 22:57:00,
2013-02-13 18:00:00,34.6,20.5,29.69,West,276,0.0,0.0,56,0.00,,---,0.00,VWS V14.00,2013-02-13 23:00:00,
2013-02-13 18:01:00,34.6,20.5,29.69,West,276,0.0,0.0,56,0.00,,---,0.00,VWS V14.00,2013-02-13 23:01:00,
2013-02-13 18:02:00,34.4,20.3,29.69,West,276,0.0,0.0,56,0.00,,---,0.00,VWS V14.00,2013-02-13 23:02:00,
2013-02-13 18:05:00,34.1,20.5,29.69,West,276,0.0,0.0,57,0.00,,---,0.00,VWS V14.00,2013-02-13 23:05:00,
2013-02-13 18:06:00,34.0,20.4,29.69,West,276,0.0,0.0,57,0.00,,---,0.00,VWS V14.00,2013-02-13 23:06:00,
2013-02-13 18:07:00,34.0,20.8,29.69,West,276,0.0,0.0,58,0.00,,---,0.00,VWS V14.00,2013-02-13 23:07:00,
2013-02-13 18:10:00,33.7,20.9,29.69,West,276,0.0,0.0,59,0.00,,---,0.00,VWS V14.00,2013-02-13 23:10:00,
2013-02-13 18:11:00,33.7,20.9,29.69,West,276,0.0,0.0,59,0.00,,---,0.00,VWS V14.00,2013-02-13 23:11:00,
2013-02-13 18:12:00,33.7,20.9,29.69,West,276,0.0,0.0,59,0.00,,---,0.00,VWS V14.00,2013-02-13 23:12:00,
2013-02-13 18:15:00,33.5,21.1,29.69,West,276,0.0,0.0,60,0.00,,---,0.00,VWS V14.00,2013-02-13 23:15:00,
2013-02-13 18:16:00,33.4,21.4,29.69,West,276,0.0,0.0,61,0.00,,---,0.00,VWS V14.00,2013-02-13 23:16:00,
2013-02-13 18:17:00,33.4,21.8,29.69,West,276,0.0,0.0,62,0.00,,---,0.00,VWS V14.00,2013-02-13 23:17:00,
2013-02-13 18:21:00,33.2,21.6,29.69,West,276,0.0,0.0,62,0.00,,---,0.00,VWS V14.00,2013-02-13 23:21:00,
2013-02-13 18:22:00,33.1,21.5,29.69,West,276,0.0,0.0,62,0.00,,---,0.00,VWS V14.00,2013-02-13 23:22:00,
2013-02-13 18:26:00,32.9,21.3,29.69,West,276,0.0,0.0,62,0.00,,---,0.00,VWS V14.00,2013-02-13 23:26:00,
2013-02-13 18:27:00,32.9,21.3,29.69,West,276,0.0,0.0,62,0.00,,---,0.00,VWS V14.00,2013-02-13 23:27:00,
2013-02-13 18:30:00,32.8,21.2,29.69,West,276,0.0,0.0,62,0.00,,---,0.00,VWS V14.00,2013-02-13 23:30:00,
2013-02-13 18:31:00,32.7,21.1,29.69,West,276,0.0,0.0,62,0.00,,---,0.00,VWS V14.00,2013-02-13 23:31:00,
2013-02-13 18:32:00,32.7,21.1,29.69,West,276,0.0,0.0,62,0.00,,---,0.00,VWS V14.00,2013-02-13 23:32:00,
2013-02-13 18:36:00,32.5,20.9,29.69,West,276,0.0,0.0,62,0.00,,---,0.00,VWS V14.00,2013-02-13 23:36:00,
2013-02-13 18:37:00,32.4,20.9,29.69,West,276,0.0,0.0,62,0.00,,---,0.00,VWS V14.00,2013-02-13 23:37:00,
2013-02-13 18:41:00,32.4,21.2,29.69,West,276,0.0,0.0,63,0.00,,---,0.00,VWS V14.00,2013-02-13 23:41:00,
2013-02-13 18:42:00,32.2,21.4,29.69,West,276,0.0,0.0,64,0.00,,---,0.00,VWS V14.00,2013-02-13 23:42:00,
2013-02-13 18:45:00,30.4,21.8,29.69,West,276,0.0,0.0,70,0.00,,---,0.00,VWS V14.00,2013-02-13 23:45:00,
2013-02-13 18:46:00,32.2,21.4,29.69,West,276,0.0,0.0,64,0.00,,---,0.00,VWS V14.00,2013-02-13 23:46:00,
2013-02-13 18:47:00,32.2,21.4,29.69,West,276,0.0,0.0,64,0.00,,---,0.00,VWS V14.00,2013-02-13 23:47:00,
2013-02-13 18:51:00,32.2,22.1,29.69,West,276,0.0,0.0,66,0.00,,---,0.00,VWS V14.00,2013-02-13 23:51:00,
2013-02-13 18:52:00,32.2,22.1,29.69,West,276,0.0,0.0,66,0.00,,---,0.00,VWS V14.00,2013-02-13 23:52:00,
2013-02-13 18:53:00,32.2,22.1,29.69,West,276,0.0,0.0,66,0.00,,---,0.00,VWS V14.00,2013-02-13 23:53:00,
2013-02-13 18:56:00,32.1,22.0,29.69,West,276,0.0,0.0,66,0.00,,---,0.00,VWS V14.00,2013-02-13 23:56:00,
2013-02-13 18:57:00,32.1,22.0,29.69,West,276,0.0,0.0,66,0.00,,---,0.00,VWS V14.00,2013-02-13 23:57:00,
2013-02-13 18:58:00,32.1,22.0,29.69,West,276,0.0,0.0,66,0.00,,---,0.00,VWS V14.00,2013-02-13 23:58:00,
2013-02-13 19:00:00,31.9,21.9,29.69,West,276,0.0,0.0,66,0.00,,---,0.00,VWS V14.00,2013-02-14 00:00:00,
2013-02-13 19:01:00,31.9,21.9,29.69,West,276,0.0,0.0,66,0.00,,---,0.00,VWS V14.00,2013-02-14 00:01:00,
2013-02-13 19:02:00,31.8,21.8,29.69,West,276,0.0,0.0,66,0.00,,---,0.00,VWS V14.00,2013-02-14 00:02:00,
2013-02-13 19:03:00,31.8,21.8,29.69,West,276,0.0,0.0,66,0.00,,---,0.00,VWS V14.00,2013-02-14 00:03:00,
2013-02-13 19:06:00,31.6,21.9,29.69,West,276,0.0,0.0,67,0.00,,---,0.00,VWS V14.00,2013-02-14 00:06:00,
2013-02-13 19:07:00,31.6,21.9,29.69,West,276,0.0,0.0,67,0.00,,---,0.00,VWS V14.00,2013-02-14 00:07:00,
2013-02-13 19:08:00,31.6,21.9,29.69,West,276,0.0,0.0,67,0.00,,---,0.00,VWS V14.00,2013-02-14 00:08:00,
2013-02-13 19:11:00,31.5,21.8,29.69,West,276,0.0,0.0,67,0.00,,---,0.00,VWS V14.00,2013-02-14 00:11:00,
2013-02-13 19:12:00,31.5,21.8,29.69,West,276,0.0,0.0,67,0.00,,---,0.00,VWS V14.00,2013-02-14 00:12:00,
2013-02-13 19:13:00,31.5,21.8,29.69,West,276,0.0,0.0,67,0.00,,---,0.00,VWS V14.00,2013-02-14 00:13:00,
2013-02-13 19:15:00,31.5,21.8,29.69,West,276,0.0,0.0,67,0.00,,---,0.00,VWS V14.00,2013-02-14 00:15:00,
2013-02-13 19:16:00,31.3,22.0,29.69,West,276,0.0,0.0,68,0.00,,---,0.00,VWS V14.00,2013-02-14 00:16:00,
2013-02-13 19:17:00,31.3,22.0,29.69,West,276,0.0,0.0,68,0.00,,---,0.00,VWS V14.00,2013-02-14 00:17:00,
2013-02-13 19:18:00,31.3,22.0,29.69,West,276,0.0,0.0,68,0.00,,---,0.00,VWS V14.00,2013-02-14 00:18:00,
2013-02-13 19:22:00,31.2,21.9,29.69,West,276,0.0,0.0,68,0.00,,---,0.00,VWS V14.00,2013-02-14 00:22:00,
2013-02-13 19:23:00,31.2,22.2,29.69,West,276,1.0,1.0,69,0.00,,---,0.00,VWS V14.00,2013-02-14 00:23:00,
2013-02-13 19:24:00,31.0,22.0,29.69,West,276,0.0,1.0,69,0.00,,---,0.00,VWS V14.00,2013-02-14 00:24:00,
2013-02-13 19:27:00,30.9,21.9,29.69,West,276,0.0,1.0,69,0.00,,---,0.00,VWS V14.00,2013-02-14 00:27:00,
2013-02-13 19:28:00,30.9,21.9,29.69,West,276,0.0,1.0,69,0.00,,---,0.00,VWS V14.00,2013-02-14 00:28:00,
2013-02-13 19:29:00,30.7,21.8,29.70,West,276,0.0,1.0,69,0.00,,---,0.00,VWS V14.00,2013-02-14 00:29:00,
2013-02-13 19:30:00,30.7,21.8,29.70,West,276,0.0,1.0,69,0.00,,---,0.00,VWS V14.00,2013-02-14 00:30:00,
2013-02-13 19:32:00,30.7,22.1,29.70,West,276,0.0,0.0,70,0.00,,---,0.00,VWS V14.00,2013-02-14 00:32:00,
2013-02-13 19:33:00,30.7,22.1,29.70,West,276,0.0,0.0,70,0.00,,---,0.00,VWS V14.00,2013-02-14 00:33:00,
2013-02-13 19:34:00,30.6,22.0,29.70,West,276,0.0,0.0,70,0.00,,---,0.00,VWS V14.00,2013-02-14 00:34:00,
2013-02-13 19:37:00,30.6,22.0,29.70,West,276,0.0,0.0,70,0.00,,---,0.00,VWS V14.00,2013-02-14 00:37:00,
2013-02-13 19:38:00,30.4,21.5,29.70,West,276,0.0,0.0,69,0.00,,---,0.00,VWS V14.00,2013-02-14 00:38:00,
2013-02-13 19:39:00,30.4,21.5,29.70,West,276,0.0,0.0,69,0.00,,---,0.00,VWS V14.00,2013-02-14 00:39:00,
2013-02-13 19:42:00,30.4,21.8,29.70,West,276,0.0,0.0,70,0.00,,---,0.00,VWS V14.00,2013-02-14 00:42:00,
2013-02-13 19:43:00,30.4,21.8,29.70,West,276,0.0,0.0,70,0.00,,---,0.00,VWS V14.00,2013-02-14 00:43:00,
2013-02-13 19:44:00,30.4,21.8,29.69,West,276,0.0,0.0,70,0.00,,---,0.00,VWS V14.00,2013-02-14 00:44:00,
2013-02-13 19:45:00,30.4,21.8,29.69,West,276,0.0,0.0,70,0.00,,---,0.00,VWS V14.00,2013-02-14 00:45:00,
2013-02-13 19:47:00,30.4,22.1,29.69,West,276,0.0,0.0,71,0.00,,---,0.00,VWS V14.00,2013-02-14 00:47:00,
2013-02-13 19:48:00,30.4,22.1,29.69,West,276,0.0,0.0,71,0.00,,---,0.00,VWS V14.00,2013-02-14 00:48:00,
2013-02-13 19:49:00,30.6,22.3,29.69,West,276,0.0,0.0,71,0.00,,---,0.00,VWS V14.00,2013-02-14 00:49:00,
2013-02-13 19:52:00,30.6,22.3,29.69,West,276,0.0,0.0,71,0.00,,---,0.00,VWS V14.00,2013-02-14 00:52:00,
2013-02-13 19:53:00,30.6,22.3,29.69,West,276,0.0,0.0,71,0.00,,---,0.00,VWS V14.00,2013-02-14 00:53:00,
2013-02-13 19:54:00,30.6,22.3,29.69,West,276,0.0,0.0,71,0.00,,---,0.00,VWS V14.00,2013-02-14 00:54:00,
2013-02-13 19:57:00,30.6,22.7,29.69,West,276,0.0,0.0,72,0.00,,---,0.00,VWS V14.00,2013-02-14 00:57:00,
2013-02-13 19:58:00,30.6,22.7,29.68,West,276,0.0,0.0,72,0.00,,---,0.00,VWS V14.00,2013-02-14 00:58:00,
2013-02-13 19:59:00,30.6,22.7,29.68,West,276,0.0,0.0,72,0.00,,---,0.00,VWS V14.00,2013-02-14 00:59:00,
2013-02-13 20:00:00,30.6,22.7,29.68,West,276,0.0,0.0,72,0.00,,---,0.00,VWS V14.00,2013-02-14 01:00:00,
2013-02-13 20:02:00,30.6,22.7,29.68,West,276,0.0,0.0,72,0.00,,---,0.00,VWS V14.00,2013-02-14 01:02:00,
2013-02-13 20:04:00,30.6,22.7,29.68,West,276,0.0,0.0,72,0.00,,---,0.00,VWS V14.00,2013-02-14 01:04:00,
2013-02-13 20:05:00,30.6,22.7,29.68,West,276,0.0,0.0,72,0.00,,---,0.00,VWS V14.00,2013-02-14 01:05:00,
2013-02-13 20:07:00,30.4,22.8,29.68,West,276,0.0,0.0,73,0.00,,---,0.00,VWS V14.00,2013-02-14 01:07:00,
2013-02-13 20:09:00,30.4,22.8,29.68,West,276,0.0,0.0,73,0.00,,---,0.00,VWS V14.00,2013-02-14 01:09:00,
2013-02-13 20:10:00,30.4,22.8,29.68,West,276,0.0,0.0,73,0.00,,---,0.00,VWS V14.00,2013-02-14 01:10:00,
2013-02-13 20:12:00,30.4,22.8,29.68,West,276,0.0,0.0,73,0.00,,---,0.00,VWS V14.00,2013-02-14 01:12:00,
2013-02-13 20:14:00,30.4,22.8,29.69,West,276,0.0,0.0,73,0.00,,---,0.00,VWS V14.00,2013-02-14 01:14:00,
2013-02-13 20:15:00,30.4,22.8,29.69,West,276,0.0,0.0,73,0.00,,---,0.00,VWS V14.00,2013-02-14 01:15:00,
2013-02-13 20:17:00,30.4,23.1,29.69,West,276,0.0,0.0,74,0.00,,---,0.00,VWS V14.00,2013-02-14 01:17:00,
2013-02-13 20:19:00,30.4,23.1,29.69,West,276,0.0,0.0,74,0.00,,---,0.00,VWS V14.00,2013-02-14 01:19:00,
2013-02-13 20:20:00,30.4,23.1,29.69,West,276,0.0,0.0,74,0.00,,---,0.00,VWS V14.00,2013-02-14 01:20:00,
2013-02-13 20:23:00,30.3,23.0,29.69,West,276,0.0,0.0,74,0.00,,---,0.00,VWS V14.00,2013-02-14 01:23:00,
2013-02-13 20:24:00,30.3,23.0,29.69,West,276,0.0,0.0,74,0.00,,---,0.00,VWS V14.00,2013-02-14 01:24:00,
2013-02-13 20:25:00,30.3,23.0,29.69,West,276,0.0,0.0,74,0.00,,---,0.00,VWS V14.00,2013-02-14 01:25:00,
2013-02-13 20:28:00,30.3,23.0,29.69,West,276,0.0,0.0,74,0.00,,---,0.00,VWS V14.00,2013-02-14 01:28:00,
2013-02-13 20:29:00,30.3,23.0,29.71,West,276,0.0,0.0,74,0.00,,---,0.00,VWS V14.00,2013-02-14 01:29:00,
2013-02-13 20:30:00,30.3,23.0,29.71,West,276,0.0,0.0,74,0.00,,---,0.00,VWS V14.00,2013-02-14 01:30:00,
2013-02-13 20:33:00,30.3,23.0,29.71,West,276,0.0,0.0,74,0.00,,---,0.00,VWS V14.00,2013-02-14 01:33:00,
2013-02-13 20:34:00,30.1,22.8,29.71,West,276,0.0,0.0,74,0.00,,---,0.00,VWS V14.00,2013-02-14 01:34:00,
2013-02-13 20:35:00,30.1,22.8,29.71,West,276,0.0,0.0,74,0.00,,---,0.00,VWS V14.00,2013-02-14 01:35:00,
2013-02-13 20:38:00,30.1,22.5,29.71,West,276,0.0,0.0,73,0.00,,---,0.00,VWS V14.00,2013-02-14 01:38:00,
2013-02-13 20:39:00,30.0,22.4,29.71,West,276,0.0,0.0,73,0.00,,---,0.00,VWS V14.00,2013-02-14 01:39:00,
2013-02-13 20:40:00,30.0,22.4,29.71,West,276,0.0,0.0,73,0.00,,---,0.00,VWS V14.00,2013-02-14 01:40:00,
2013-02-13 20:43:00,30.0,22.4,29.71,West,276,0.0,0.0,73,0.00,,---,0.00,VWS V14.00,2013-02-14 01:43:00,
2013-02-13 20:45:00,29.8,22.2,29.69,West,276,0.0,0.0,73,0.00,,---,0.00,VWS V14.00,2013-02-14 01:45:00,
2013-02-13 20:48:00,29.8,22.2,29.69,West,276,0.0,0.0,73,0.00,,---,0.00,VWS V14.00,2013-02-14 01:48:00,
2013-02-13 20:50:00,29.8,22.2,29.69,West,276,0.0,0.0,73,0.00,,---,0.00,VWS V14.00,2013-02-14 01:50:00,
2013-02-13 20:51:00,29.8,22.2,29.69,West,276,0.0,0.0,73,0.00,,---,0.00,VWS V14.00,2013-02-14 01:51:00,
2013-02-13 20:53:00,29.8,22.5,29.69,West,276,0.0,0.0,74,0.00,,---,0.00,VWS V14.00,2013-02-14 01:53:00,
2013-02-13 20:55:00,29.8,22.5,29.69,West,276,0.0,0.0,74,0.00,,---,0.00,VWS V14.00,2013-02-14 01:55:00,
2013-02-13 20:56:00,29.8,22.5,29.69,West,276,0.0,0.0,74,0.00,,---,0.00,VWS V14.00,2013-02-14 01:56:00,
2013-02-13 20:58:00,29.8,22.5,29.69,West,276,0.0,0.0,74,0.00,,---,0.00,VWS V14.00,2013-02-14 01:58:00,
2013-02-13 21:00:00,29.8,22.5,29.68,West,276,0.0,1.0,74,0.00,,---,0.00,VWS V14.00,2013-02-14 02:00:00,
2013-02-13 21:01:00,29.8,22.5,29.68,West,276,0.0,1.0,74,0.00,,---,0.00,VWS V14.00,2013-02-14 02:01:00,
2013-02-13 21:03:00,29.8,22.5,29.68,West,276,0.0,1.0,74,0.00,,---,0.00,VWS V14.00,2013-02-14 02:03:00,
2013-02-13 21:05:00,29.8,22.2,29.68,West,276,0.0,1.0,73,0.00,,---,0.00,VWS V14.00,2013-02-14 02:05:00,
2013-02-13 21:06:00,29.8,22.2,29.68,West,276,0.0,1.0,73,0.00,,---,0.00,VWS V14.00,2013-02-14 02:06:00,
2013-02-13 21:08:00,29.8,22.2,29.68,West,276,0.0,1.0,73,0.00,,---,0.00,VWS V14.00,2013-02-14 02:08:00,
2013-02-13 21:10:00,29.8,22.2,29.68,West,276,0.0,1.0,73,0.00,,---,0.00,VWS V14.00,2013-02-14 02:10:00,
2013-02-13 21:11:00,29.8,22.5,29.68,West,276,0.0,1.0,74,0.00,,---,0.00,VWS V14.00,2013-02-14 02:11:00,
2013-02-13 21:13:00,29.8,22.5,29.68,West,276,0.0,1.0,74,0.00,,---,0.00,VWS V14.00,2013-02-14 02:13:00,
2013-02-13 21:15:00,29.8,22.5,29.68,West,276,0.0,0.0,74,0.00,,---,0.00,VWS V14.00,2013-02-14 02:15:00,
2013-02-13 21:16:00,29.8,22.5,29.68,West,276,0.0,0.0,74,0.00,,---,0.00,VWS V14.00,2013-02-14 02:16:00,
2013-02-13 21:18:00,29.8,22.5,29.68,West,276,0.0,0.0,74,0.00,,---,0.00,VWS V14.00,2013-02-14 02:18:00,
2013-02-13 21:20:00,29.8,22.5,29.68,West,276,0.0,0.0,74,0.00,,---,0.00,VWS V14.00,2013-02-14 02:20:00,
2013-02-13 21:21:00,29.8,22.5,29.68,West,276,0.0,0.0,74,0.00,,---,0.00,VWS V14.00,2013-02-14 02:21:00,
2013-02-13 21:23:00,29.8,22.5,29.68,West,276,0.0,0.0,74,0.00,,---,0.00,VWS V14.00,2013-02-14 02:23:00,
2013-02-13 21:25:00,29.8,22.5,29.68,West,276,0.0,0.0,74,0.00,,---,0.00,VWS V14.00,2013-02-14 02:25:00,
2013-02-13 21:26:00,29.8,22.5,29.68,West,276,0.0,0.0,74,0.00,,---,0.00,VWS V14.00,2013-02-14 02:26:00,
2013-02-13 21:28:00,29.8,22.5,29.68,West,276,0.0,0.0,74,0.00,,---,0.00,VWS V14.00,2013-02-14 02:28:00,
2013-02-13 21:30:00,29.8,22.5,29.68,West,276,0.0,0.0,74,0.00,,---,0.00,VWS V14.00,2013-02-14 02:30:00,
2013-02-13 21:31:00,29.8,22.5,29.68,West,276,0.0,0.0,74,0.00,,---,0.00,VWS V14.00,2013-02-14 02:31:00,
2013-02-13 21:34:00,29.8,22.5,29.68,West,276,0.0,0.0,74,0.00,,---,0.00,VWS V14.00,2013-02-14 02:34:00,
2013-02-13 21:36:00,30.0,22.7,29.68,West,276,0.0,0.0,74,0.00,,---,0.00,VWS V14.00,2013-02-14 02:36:00,
2013-02-13 21:37:00,30.0,22.7,29.68,West,276,0.0,0.0,74,0.00,,---,0.00,VWS V14.00,2013-02-14 02:37:00,
2013-02-13 21:39:00,30.0,22.7,29.68,West,276,0.0,0.0,74,0.00,,---,0.00,VWS V14.00,2013-02-14 02:39:00,
2013-02-13 21:41:00,30.0,22.7,29.68,West,276,0.0,0.0,74,0.00,,---,0.00,VWS V14.00,2013-02-14 02:41:00,
2013-02-13 21:42:00,30.0,22.7,29.68,West,276,0.0,0.0,74,0.00,,---,0.00,VWS V14.00,2013-02-14 02:42:00,
2013-02-13 21:44:00,30.0,22.7,29.68,West,276,0.0,0.0,74,0.00,,---,0.00,VWS V14.00,2013-02-14 02:44:00,
2013-02-13 21:45:00,30.0,22.7,29.68,West,276,0.0,0.0,74,0.00,,---,0.00,VWS V14.00,2013-02-14 02:45:00,
2013-02-13 21:46:00,30.0,22.7,29.68,West,276,0.0,0.0,74,0.00,,---,0.00,VWS V14.00,2013-02-14 02:46:00,
2013-02-13 21:47:00,30.1,22.8,29.68,West,276,0.0,0.0,74,0.00,,---,0.00,VWS V14.00,2013-02-14 02:47:00,
2013-02-13 21:49:00,30.1,22.8,29.68,West,276,0.0,0.0,74,0.00,,---,0.00,VWS V14.00,2013-02-14 02:49:00,
2013-02-13 21:51:00,30.1,22.8,29.68,West,276,0.0,0.0,74,0.00,,---,0.00,VWS V14.00,2013-02-14 02:51:00,
2013-02-13 21:52:00,30.1,22.8,29.68,West,276,0.0,0.0,74,0.00,,---,0.00,VWS V14.00,2013-02-14 02:52:00,
2013-02-13 21:54:00,30.3,23.0,29.68,West,276,0.0,0.0,74,0.00,,---,0.00,VWS V14.00,2013-02-14 02:54:00,
2013-02-13 21:56:00,30.3,23.0,29.68,West,276,0.0,0.0,74,0.00,,---,0.00,VWS V14.00,2013-02-14 02:56:00,
2013-02-13 21:57:00,30.3,23.0,29.68,West,276,0.0,0.0,74,0.00,,---,0.00,VWS V14.00,2013-02-14 02:57:00,
2013-02-13 21:59:00,30.3,23.0,29.67,West,276,1.0,1.0,74,0.00,,---,0.00,VWS V14.00,2013-02-14 02:59:00,
2013-02-13 22:00:00,30.3,23.0,29.67,West,276,0.0,1.0,74,0.00,,---,0.00,VWS V14.00,2013-02-14 03:00:00,
2013-02-13 22:01:00,30.3,23.0,29.67,West,276,0.0,1.0,74,0.00,,---,0.00,VWS V14.00,2013-02-14 03:01:00,
2013-02-13 22:02:00,30.3,23.0,29.67,West,276,0.0,1.0,74,0.00,,---,0.00,VWS V14.00,2013-02-14 03:02:00,
2013-02-13 22:04:00,30.3,23.0,29.67,West,276,0.0,1.0,74,0.00,,---,0.00,VWS V14.00,2013-02-14 03:04:00,
2013-02-13 22:06:00,30.3,23.0,29.67,West,276,0.0,1.0,74,0.00,,---,0.00,VWS V14.00,2013-02-14 03:06:00,
2013-02-13 22:07:00,30.4,23.1,29.67,West,276,0.0,1.0,74,0.00,,---,0.00,VWS V14.00,2013-02-14 03:07:00,
2013-02-13 22:09:00,30.4,23.1,29.67,West,276,0.0,1.0,74,0.00,,---,0.00,VWS V14.00,2013-02-14 03:09:00,
2013-02-13 22:11:00,30.4,23.1,29.67,West,276,0.0,1.0,74,0.00,,---,0.00,VWS V14.00,2013-02-14 03:11:00,
2013-02-13 22:12:00,30.4,23.1,29.67,West,276,0.0,1.0,74,0.00,,---,0.00,VWS V14.00,2013-02-14 03:12:00,
2013-02-13 22:13:00,30.4,23.1,29.67,West,276,0.0,1.0,74,0.00,,---,0.00,VWS V14.00,2013-02-14 03:13:00,
2013-02-13 22:14:00,30.4,23.4,29.67,West,276,0.0,1.0,75,0.00,,---,0.00,VWS V14.00,2013-02-14 03:14:00,
2013-02-13 22:15:00,30.4,23.4,29.67,West,276,0.0,1.0,75,0.00,,---,0.00,VWS V14.00,2013-02-14 03:15:00,
2013-02-13 22:16:00,30.6,23.6,29.67,West,276,0.0,0.0,75,0.00,,---,0.00,VWS V14.00,2013-02-14 03:16:00,
2013-02-13 22:17:00,30.6,23.3,29.67,West,276,0.0,0.0,74,0.00,,---,0.00,VWS V14.00,2013-02-14 03:17:00,
2013-02-13 22:18:00,30.6,23.3,29.67,West,276,0.0,0.0,74,0.00,,---,0.00,VWS V14.00,2013-02-14 03:18:00,
2013-02-13 22:19:00,30.6,23.3,29.67,West,276,0.0,0.0,74,0.00,,---,0.00,VWS V14.00,2013-02-14 03:19:00,
2013-02-13 22:22:00,30.6,23.6,29.67,West,276,0.0,0.0,75,0.00,,---,0.00,VWS V14.00,2013-02-14 03:22:00,
2013-02-13 22:23:00,30.6,23.6,29.67,West,276,0.0,0.0,75,0.00,,---,0.00,VWS V14.00,2013-02-14 03:23:00,
2013-02-13 22:24:00,30.6,23.6,29.67,West,276,0.0,0.0,75,0.00,,---,0.00,VWS V14.00,2013-02-14 03:24:00,
2013-02-13 22:27:00,30.6,23.6,29.67,West,276,0.0,0.0,75,0.00,,---,0.00,VWS V14.00,2013-02-14 03:27:00,
2013-02-13 22:28:00,30.7,24.4,29.67,West,276,0.0,0.0,77,0.00,,---,0.00,VWS V14.00,2013-02-14 03:28:00,
2013-02-13 22:29:00,31.0,25.0,29.67,West,276,0.0,0.0,78,0.00,,---,0.00,VWS V14.00,2013-02-14 03:29:00,
2013-02-13 22:30:00,31.0,25.0,29.67,West,276,0.0,0.0,78,0.00,,---,0.00,VWS V14.00,2013-02-14 03:30:00,
2013-02-13 22:32:00,31.0,25.0,29.67,West,276,0.0,0.0,78,0.00,,---,0.00,VWS V14.00,2013-02-14 03:32:00,
2013-02-13 22:33:00,31.0,24.6,29.67,West,276,0.0,0.0,77,0.00,,---,0.00,VWS V14.00,2013-02-14 03:33:00,
2013-02-13 22:34:00,31.0,24.6,29.67,West,276,0.0,0.0,77,0.00,,---,0.00,VWS V14.00,2013-02-14 03:34:00,
2013-02-13 22:37:00,31.0,24.6,29.67,West,276,0.0,0.0,77,0.00,,---,0.00,VWS V14.00,2013-02-14 03:37:00,
2013-02-13 22:38:00,30.9,24.5,29.67,West,276,0.0,0.0,77,0.00,,---,0.00,VWS V14.00,2013-02-14 03:38:00,
2013-02-13 22:39:00,30.9,24.5,29.67,West,276,0.0,0.0,77,0.00,,---,0.00,VWS V14.00,2013-02-14 03:39:00,
2013-02-13 22:42:00,30.9,24.2,29.67,West,276,0.0,0.0,76,0.00,,---,0.00,VWS V14.00,2013-02-14 03:42:00,
2013-02-13 22:43:00,30.9,24.2,29.67,West,276,0.0,0.0,76,0.00,,---,0.00,VWS V14.00,2013-02-14 03:43:00,
2013-02-13 22:44:00,30.7,24.0,29.67,West,276,0.0,0.0,76,0.00,,---,0.00,VWS V14.00,2013-02-14 03:44:00,
2013-02-13 22:45:00,30.7,24.0,29.67,West,276,0.0,0.0,76,0.00,,---,0.00,VWS V14.00,2013-02-14 03:45:00,
2013-02-13 22:47:00,30.7,24.0,29.67,West,276,0.0,0.0,76,0.00,,---,0.00,VWS V14.00,2013-02-14 03:47:00,
2013-02-13 22:48:00,30.7,24.0,29.67,West,276,2.0,2.0,76,0.00,,---,0.00,VWS V14.00,2013-02-14 03:48:00,
2013-02-13 22:49:00,30.7,24.0,29.67,West,276,0.0,2.0,76,0.00,,---,0.00,VWS V14.00,2013-02-14 03:49:00,
2013-02-13 22:52:00,30.7,24.0,29.67,West,276,0.0,2.0,76,0.00,,---,0.00,VWS V14.00,2013-02-14 03:52:00,
2013-02-13 22:53:00,30.7,24.0,29.67,West,276,0.0,2.0,76,0.00,,---,0.00,VWS V14.00,2013-02-14 03:53:00,
2013-02-13 22:54:00,30.7,24.4,29.67,West,276,0.0,2.0,77,0.00,,---,0.00,VWS V14.00,2013-02-14 03:54:00,
2013-02-13 22:57:00,30.7,24.4,29.67,West,276,0.0,2.0,77,0.00,,---,0.00,VWS V14.00,2013-02-14 03:57:00,
2013-02-13 22:58:00,30.7,24.4,29.67,West,276,0.0,2.0,77,0.00,,---,0.00,VWS V14.00,2013-02-14 03:58:00,
2013-02-13 23:00:00,30.7,24.4,29.67,West,276,0.0,0.0,77,0.00,,---,0.00,VWS V14.00,2013-02-14 04:00:00,
2013-02-13 23:02:00,30.7,24.4,29.67,West,276,0.0,1.0,77,0.00,,---,0.00,VWS V14.00,2013-02-14 04:02:00,
2013-02-13 23:03:00,30.7,24.4,29.67,West,276,0.0,1.0,77,0.00,,---,0.00,VWS V14.00,2013-02-14 04:03:00,
2013-02-13 23:05:00,30.7,24.4,29.67,West,276,0.0,1.0,77,0.00,,---,0.00,VWS V14.00,2013-02-14 04:05:00,
2013-02-13 23:07:00,30.7,24.4,29.67,West,276,0.0,1.0,77,0.00,,---,0.00,VWS V14.00,2013-02-14 04:07:00,
2013-02-13 23:08:00,30.7,24.4,29.67,West,276,0.0,1.0,77,0.00,,---,0.00,VWS V14.00,2013-02-14 04:08:00,
2013-02-13 23:10:00,30.7,24.4,29.67,West,276,0.0,1.0,77,0.00,,---,0.00,VWS V14.00,2013-02-14 04:10:00,
2013-02-13 23:12:00,30.7,24.0,29.67,West,276,0.0,1.0,76,0.00,,---,0.00,VWS V14.00,2013-02-14 04:12:00,
2013-02-13 23:13:00,30.7,24.0,29.67,West,276,0.0,1.0,76,0.00,,---,0.00,VWS V14.00,2013-02-14 04:13:00,
2013-02-13 23:15:00,30.7,24.0,29.66,West,276,0.0,0.0,76,0.00,,---,0.00,VWS V14.00,2013-02-14 04:15:00,
2013-02-13 23:17:00,30.7,24.0,29.66,West,276,0.0,0.0,76,0.00,,---,0.00,VWS V14.00,2013-02-14 04:17:00,
2013-02-13 23:18:00,30.7,24.0,29.66,West,276,0.0,0.0,76,0.00,,---,0.00,VWS V14.00,2013-02-14 04:18:00,
2013-02-13 23:19:00,30.7,24.4,29.66,West,276,0.0,0.0,77,0.00,,---,0.00,VWS V14.00,2013-02-14 04:19:00,
2013-02-13 23:20:00,30.9,24.5,29.66,West,276,0.0,0.0,77,0.00,,---,0.00,VWS V14.00,2013-02-14 04:20:00,
2013-02-13 23:23:00,30.9,24.5,29.66,West,276,0.0,0.0,77,0.00,,---,0.00,VWS V14.00,2013-02-14 04:23:00,
2013-02-13 23:24:00,30.9,24.5,29.66,West,276,0.0,0.0,77,0.00,,---,0.00,VWS V14.00,2013-02-14 04:24:00,
2013-02-13 23:25:00,30.9,24.5,29.66,West,276,0.0,0.0,77,0.00,,---,0.00,VWS V14.00,2013-02-14 04:25:00,
2013-02-13 23:28:00,30.9,24.5,29.66,West,276,0.0,0.0,77,0.00,,---,0.00,VWS V14.00,2013-02-14 04:28:00,
2013-02-13 23:29:00,30.9,24.5,29.66,West,276,0.0,0.0,77,0.00,,---,0.00,VWS V14.00,2013-02-14 04:29:00,
2013-02-13 23:30:00,30.9,24.5,29.66,West,276,0.0,0.0,77,0.00,,---,0.00,VWS V14.00,2013-02-14 04:30:00,
2013-02-13 23:33:00,30.9,24.5,29.66,West,276,0.0,0.0,77,0.00,,---,0.00,VWS V14.00,2013-02-14 04:33:00,
2013-02-13 23:34:00,30.9,24.5,29.66,West,276,0.0,0.0,77,0.00,,---,0.00,VWS V14.00,2013-02-14 04:34:00,
2013-02-13 23:35:00,30.9,24.5,29.66,West,276,0.0,0.0,77,0.00,,---,0.00,VWS V14.00,2013-02-14 04:35:00,
2013-02-13 23:38:00,30.9,24.2,29.66,West,276,0.0,0.0,76,0.00,,---,0.00,VWS V14.00,2013-02-14 04:38:00,
2013-02-13 23:39:00,30.9,24.2,29.66,West,276,0.0,0.0,76,0.00,,---,0.00,VWS V14.00,2013-02-14 04:39:00,
2013-02-13 23:40:00,30.9,24.2,29.66,West,276,0.0,0.0,76,0.00,,---,0.00,VWS V14.00,2013-02-14 04:40:00,
2013-02-13 23:43:00,31.0,24.3,29.66,West,276,0.0,0.0,76,0.00,,---,0.00,VWS V14.00,2013-02-14 04:43:00,
2013-02-13 23:44:00,31.0,24.3,29.65,West,276,0.0,0.0,76,0.00,,---,0.00,VWS V14.00,2013-02-14 04:44:00,
2013-02-13 23:45:00,31.0,24.3,29.65,West,276,0.0,0.0,76,0.00,,---,0.00,VWS V14.00,2013-02-14 04:45:00,
2013-02-13 23:48:00,31.0,24.3,29.65,West,276,0.0,2.0,76,0.00,,---,0.00,VWS V14.00,2013-02-14 04:48:00,
2013-02-13 23:49:00,31.0,24.3,29.65,West,276,0.0,2.0,76,0.00,,---,0.00,VWS V14.00,2013-02-14 04:49:00,
2013-02-13 23:50:00,31.0,24.3,29.65,West,276,0.0,2.0,76,0.00,,---,0.00,VWS V14.00,2013-02-14 04:50:00,
2013-02-13 23:53:00,31.0,24.3,29.65,West,276,0.0,2.0,76,0.00,,---,0.00,VWS V14.00,2013-02-14 04:53:00,
2013-02-13 23:54:00,31.0,24.3,29.65,West,276,0.0,2.0,76,0.00,,---,0.00,VWS V14.00,2013-02-14 04:54:00,
2013-02-13 23:55:00,31.0,24.0,29.65,West,276,0.0,2.0,75,0.00,,---,0.00,VWS V14.00,2013-02-14 04:55:00,
2013-02-13 23:58:00,31.0,24.0,29.65,WNW,285,2.0,2.0,75,0.00,,---,0.00,VWS V14.00,2013-02-14 04:58:00,
2013-02-13 23:59:00,31.0,24.0,29.64,WNW,285,0.0,2.0,75,0.00,,---,0.00,VWS V14.00,2013-02-14 04:59:00,